2016 Cux-Wetter.de -Die Nutzung der Wetterdaten nur mit ausdrcklicher Genehmigung
Wetterdaten: Freitag, 07.08.2020
Datum Zeit Temp. A. Feuchte A. Luftdruck Regen Wind Richtung Richtung Sonnenschein Solar Taupunkt Windchill Windben
07.08.2020 00:00 19,2 C 82 % 1019,6 hPa 0,0 l/m 0,0 km/h (0 Bft) N-NW 345 0 min 0 W/m 16,0 C 19,2 C 0,0 km/h (0 Bft)
07.08.2020 00:03 19,2 C 82 % 1019,6 hPa 0,0 l/m 0,1 km/h (0 Bft) N-NW 345 0 min 0 W/m 16,0 C 19,2 C 1,6 km/h (1 Bft)
07.08.2020 00:06 19,2 C 82 % 1019,7 hPa 0,0 l/m 0,0 km/h (0 Bft) N-NW 345 0 min 0 W/m 16,0 C 19,2 C 1,6 km/h (1 Bft)
07.08.2020 00:09 19,1 C 82 % 1019,6 hPa 0,0 l/m 0,2 km/h (0 Bft) N-NW 345 0 min 0 W/m 16,0 C 19,1 C 1,6 km/h (1 Bft)
07.08.2020 00:12 19,1 C 82 % 1019,6 hPa 0,0 l/m 0,6 km/h (0 Bft) N-NW 345 0 min 0 W/m 16,0 C 19,1 C 3,2 km/h (1 Bft)
07.08.2020 00:15 19,1 C 82 % 1019,7 hPa 0,0 l/m 0,2 km/h (0 Bft) N-NW 345 0 min 0 W/m 16,0 C 19,1 C 1,6 km/h (1 Bft)
07.08.2020 00:18 19,0 C 82 % 1019,6 hPa 0,0 l/m 0,2 km/h (0 Bft) N-NW 345 0 min 0 W/m 15,9 C 19,0 C 1,6 km/h (1 Bft)
07.08.2020 00:21 18,9 C 82 % 1019,6 hPa 0,0 l/m 0,4 km/h (0 Bft) N-NW 345 0 min 0 W/m 15,8 C 18,9 C 3,2 km/h (1 Bft)
07.08.2020 00:24 18,9 C 82 % 1019,6 hPa 0,0 l/m 0,1 km/h (0 Bft) N-NW 345 0 min 0 W/m 15,8 C 18,9 C 1,6 km/h (1 Bft)
07.08.2020 00:27 18,8 C 82 % 1019,6 hPa 0,0 l/m 0,5 km/h (0 Bft) N-NW 345 0 min 0 W/m 15,7 C 18,8 C 3,2 km/h (1 Bft)
07.08.2020 00:30 18,8 C 82 % 1019,6 hPa 0,0 l/m 0,3 km/h (0 Bft) N-NW 345 0 min 0 W/m 15,7 C 18,8 C 1,6 km/h (1 Bft)
07.08.2020 00:33 18,8 C 82 % 1019,6 hPa 0,0 l/m 0,2 km/h (0 Bft) N-NW 345 0 min 0 W/m 15,7 C 18,8 C 1,6 km/h (1 Bft)
07.08.2020 00:36 18,8 C 82 % 1019,6 hPa 0,0 l/m 0,1 km/h (0 Bft) N-NW 345 0 min 0 W/m 15,7 C 18,8 C 1,6 km/h (1 Bft)
07.08.2020 00:39 18,7 C 82 % 1019,5 hPa 0,0 l/m 0,1 km/h (0 Bft) N-NW 345 0 min 0 W/m 15,6 C 18,7 C 1,6 km/h (1 Bft)
07.08.2020 00:42 18,7 C 82 % 1019,5 hPa 0,0 l/m 0,0 km/h (0 Bft) N-NW 345 0 min 0 W/m 15,6 C 18,7 C 0,0 km/h (0 Bft)
07.08.2020 00:45 18,7 C 82 % 1019,5 hPa 0,0 l/m 0,0 km/h (0 Bft) N-NW 345 0 min 0 W/m 15,6 C 18,7 C 0,0 km/h (0 Bft)
07.08.2020 00:48 18,7 C 82 % 1019,5 hPa 0,0 l/m 0,0 km/h (0 Bft) N-NW 345 0 min 0 W/m 15,6 C 18,7 C 0,0 km/h (0 Bft)
07.08.2020 00:51 18,7 C 82 % 1019,5 hPa 0,0 l/m 0,0 km/h (0 Bft) N-NW 345 0 min 0 W/m 15,6 C 18,7 C 0,0 km/h (0 Bft)
07.08.2020 00:54 18,6 C 82 % 1019,5 hPa 0,0 l/m 0,2 km/h (0 Bft) N-NW 345 0 min 0 W/m 15,5 C 18,6 C 3,2 km/h (1 Bft)
07.08.2020 00:57 18,6 C 82 % 1019,5 hPa 0,0 l/m 0,0 km/h (0 Bft) N-NW 345 0 min 0 W/m 15,5 C 18,6 C 0,0 km/h (0 Bft)
07.08.2020 01:00 18,6 C 82 % 1019,4 hPa 0,0 l/m 0,2 km/h (0 Bft) N-NW 345 0 min 0 W/m 15,5 C 18,6 C 1,6 km/h (1 Bft)
07.08.2020 01:03 18,6 C 82 % 1019,5 hPa 0,0 l/m 0,0 km/h (0 Bft) N-NW 345 0 min 0 W/m 15,5 C 18,6 C 0,0 km/h (0 Bft)
07.08.2020 01:06 18,6 C 83 % 1019,5 hPa 0,0 l/m 0,0 km/h (0 Bft) N-NW 345 0 min 0 W/m 15,7 C 18,6 C 0,0 km/h (0 Bft)
07.08.2020 01:09 18,5 C 83 % 1019,5 hPa 0,0 l/m 0,2 km/h (0 Bft) N-NW 345 0 min 0 W/m 15,6 C 18,5 C 1,6 km/h (1 Bft)
07.08.2020 01:12 18,5 C 83 % 1019,5 hPa 0,0 l/m 0,2 km/h (0 Bft) N-NW 345 0 min 0 W/m 15,6 C 18,5 C 1,6 km/h (1 Bft)
07.08.2020 01:15 18,5 C 83 % 1019,5 hPa 0,0 l/m 0,3 km/h (0 Bft) N-NW 345 0 min 0 W/m 15,6 C 18,5 C 1,6 km/h (1 Bft)
07.08.2020 01:18 18,5 C 83 % 1019,5 hPa 0,0 l/m 0,1 km/h (0 Bft) N-NW 345 0 min 0 W/m 15,6 C 18,5 C 1,6 km/h (1 Bft)
07.08.2020 01:21 18,4 C 84 % 1019,5 hPa 0,0 l/m 0,6 km/h (0 Bft) N-NW 345 0 min 0 W/m 15,6 C 18,4 C 4,8 km/h (1 Bft)
07.08.2020 01:24 18,4 C 84 % 1019,5 hPa 0,0 l/m 0,7 km/h (0 Bft) N-NW 345 0 min 0 W/m 15,6 C 18,4 C 3,2 km/h (1 Bft)
07.08.2020 01:27 18,4 C 84 % 1019,5 hPa 0,0 l/m 0,9 km/h (0 Bft) N-NW 345 0 min 0 W/m 15,6 C 18,4 C 3,2 km/h (1 Bft)
07.08.2020 01:30 18,4 C 84 % 1019,5 hPa 0,0 l/m 0,6 km/h (0 Bft) N-NW 345 0 min 0 W/m 15,6 C 18,4 C 3,2 km/h (1 Bft)
07.08.2020 01:33 18,3 C 84 % 1019,5 hPa 0,0 l/m 0,4 km/h (0 Bft) N-NW 345 0 min 0 W/m 15,5 C 18,3 C 3,2 km/h (1 Bft)
07.08.2020 01:36 18,3 C 84 % 1019,5 hPa 0,0 l/m 0,5 km/h (0 Bft) N-NW 345 0 min 0 W/m 15,5 C 18,3 C 3,2 km/h (1 Bft)
07.08.2020 01:39 18,3 C 84 % 1019,5 hPa 0,0 l/m 1,0 km/h (0 Bft) N-NW 345 0 min 0 W/m 15,5 C 18,3 C 3,2 km/h (1 Bft)
07.08.2020 01:42 18,3 C 84 % 1019,6 hPa 0,0 l/m 0,6 km/h (0 Bft) N-NW 345 0 min 0 W/m 15,5 C 18,3 C 3,2 km/h (1 Bft)
07.08.2020 01:45 18,3 C 84 % 1019,5 hPa 0,0 l/m 1,1 km/h (1 Bft) N-NW 345 0 min 0 W/m 15,5 C 18,3 C 4,8 km/h (1 Bft)
07.08.2020 01:48 18,2 C 85 % 1019,5 hPa 0,0 l/m 0,3 km/h (0 Bft) N-NW 345 0 min 0 W/m 15,6 C 18,2 C 1,6 km/h (1 Bft)
07.08.2020 01:51 18,2 C 85 % 1019,5 hPa 0,0 l/m 0,6 km/h (0 Bft) N-NW 345 0 min 0 W/m 15,6 C 18,2 C 4,8 km/h (1 Bft)
07.08.2020 01:54 18,2 C 85 % 1019,5 hPa 0,0 l/m 0,9 km/h (0 Bft) N-NW 345 0 min 0 W/m 15,6 C 18,2 C 4,8 km/h (1 Bft)
07.08.2020 01:57 18,2 C 85 % 1019,5 hPa 0,0 l/m 1,3 km/h (1 Bft) N-NW 347 0 min 0 W/m 15,6 C 18,2 C 4,8 km/h (1 Bft)
07.08.2020 02:00 18,2 C 86 % 1019,5 hPa 0,0 l/m 1,4 km/h (1 Bft) N-NW 347 0 min 0 W/m 15,8 C 18,2 C 3,2 km/h (1 Bft)
07.08.2020 02:03 18,2 C 86 % 1019,5 hPa 0,0 l/m 1,6 km/h (1 Bft) O-NO 74 0 min 0 W/m 15,8 C 18,2 C 6,4 km/h (2 Bft)
07.08.2020 02:06 18,2 C 86 % 1019,5 hPa 0,0 l/m 2,3 km/h (1 Bft) O-NO 76 0 min 0 W/m 15,8 C 18,2 C 6,4 km/h (2 Bft)
07.08.2020 02:09 18,2 C 86 % 1019,5 hPa 0,0 l/m 1,3 km/h (1 Bft) O-NO 76 0 min 0 W/m 15,8 C 18,2 C 4,8 km/h (1 Bft)
07.08.2020 02:12 18,2 C 86 % 1019,5 hPa 0,0 l/m 0,8 km/h (0 Bft) O-NO 76 0 min 0 W/m 15,8 C 18,2 C 4,8 km/h (1 Bft)
07.08.2020 02:15 18,2 C 87 % 1019,4 hPa 0,0 l/m 1,3 km/h (1 Bft) O-NO 76 0 min 0 W/m 16,0 C 18,2 C 6,4 km/h (2 Bft)
07.08.2020 02:18 18,2 C 87 % 1019,5 hPa 0,0 l/m 0,2 km/h (0 Bft) O-NO 76 0 min 0 W/m 16,0 C 18,2 C 3,2 km/h (1 Bft)
07.08.2020 02:21 18,2 C 87 % 1019,5 hPa 0,0 l/m 0,3 km/h (0 Bft) O-NO 76 0 min 0 W/m 16,0 C 18,2 C 1,6 km/h (1 Bft)
07.08.2020 02:24 18,2 C 87 % 1019,4 hPa 0,0 l/m 0,0 km/h (0 Bft) O-NO 76 0 min 0 W/m 16,0 C 18,2 C 1,6 km/h (1 Bft)
07.08.2020 02:27 18,2 C 87 % 1019,4 hPa 0,0 l/m 0,0 km/h (0 Bft) O-NO 76 0 min 0 W/m 16,0 C 18,2 C 0,0 km/h (0 Bft)
07.08.2020 02:30 18,2 C 87 % 1019,4 hPa 0,0 l/m 0,0 km/h (0 Bft) O-NO 76 0 min 0 W/m 16,0 C 18,2 C 0,0 km/h (0 Bft)
07.08.2020 02:33 18,2 C 88 % 1019,4 hPa 0,0 l/m 0,0 km/h (0 Bft) O-NO 76 0 min 0 W/m 16,2 C 18,2 C 0,0 km/h (0 Bft)
07.08.2020 02:36 18,2 C 88 % 1019,5 hPa 0,0 l/m 0,0 km/h (0 Bft) O-NO 76 0 min 0 W/m 16,2 C 18,2 C 0,0 km/h (0 Bft)
07.08.2020 02:39 18,2 C 88 % 1019,4 hPa 0,0 l/m 1,7 km/h (1 Bft) O-NO 76 0 min 0 W/m 16,2 C 18,2 C 4,8 km/h (1 Bft)
07.08.2020 02:42 18,2 C 88 % 1019,5 hPa 0,0 l/m 3,0 km/h (1 Bft) O-NO 76 0 min 0 W/m 16,2 C 18,2 C 6,4 km/h (2 Bft)
07.08.2020 02:45 18,2 C 88 % 1019,4 hPa 0,0 l/m 0,2 km/h (0 Bft) O-NO 76 0 min 0 W/m 16,2 C 18,2 C 3,2 km/h (1 Bft)
07.08.2020 02:48 18,2 C 88 % 1019,4 hPa 0,0 l/m 1,5 km/h (1 Bft) O-NO 76 0 min 0 W/m 16,2 C 18,2 C 4,8 km/h (1 Bft)
07.08.2020 02:51 18,2 C 88 % 1019,3 hPa 0,0 l/m 0,9 km/h (0 Bft) O-NO 78 0 min 0 W/m 16,2 C 18,2 C 3,2 km/h (1 Bft)
07.08.2020 02:54 18,1 C 88 % 1019,4 hPa 0,0 l/m 1,2 km/h (1 Bft) O-NO 78 0 min 0 W/m 16,1 C 18,1 C 3,2 km/h (1 Bft)
07.08.2020 02:57 18,1 C 88 % 1019,4 hPa 0,0 l/m 1,7 km/h (1 Bft) O-NO 78 0 min 0 W/m 16,1 C 18,1 C 4,8 km/h (1 Bft)
07.08.2020 03:00 18,1 C 88 % 1019,4 hPa 0,0 l/m 2,7 km/h (1 Bft) O-NO 78 0 min 0 W/m 16,1 C 18,1 C 4,8 km/h (1 Bft)
07.08.2020 03:03 18,1 C 88 % 1019,4 hPa 0,0 l/m 2,8 km/h (1 Bft) O-NO 78 0 min 0 W/m 16,1 C 18,1 C 6,4 km/h (2 Bft)
07.08.2020 03:06 18,1 C 88 % 1019,4 hPa 0,0 l/m 3,1 km/h (1 Bft) SO 132 0 min 0 W/m 16,1 C 18,1 C 11,3 km/h (2 Bft)
07.08.2020 03:09 18,0 C 88 % 1019,4 hPa 0,0 l/m 2,7 km/h (1 Bft) SO 130 0 min 0 W/m 16,0 C 18,0 C 6,4 km/h (2 Bft)
07.08.2020 03:12 17,9 C 88 % 1019,4 hPa 0,0 l/m 2,9 km/h (1 Bft) SO 130 0 min 0 W/m 15,9 C 17,9 C 8,0 km/h (2 Bft)
07.08.2020 03:15 17,9 C 88 % 1019,5 hPa 0,0 l/m 3,3 km/h (1 Bft) SO 130 0 min 0 W/m 15,9 C 17,9 C 6,4 km/h (2 Bft)
07.08.2020 03:18 17,9 C 88 % 1019,5 hPa 0,0 l/m 2,9 km/h (1 Bft) SO 130 0 min 0 W/m 15,9 C 17,9 C 4,8 km/h (1 Bft)
07.08.2020 03:21 17,9 C 87 % 1019,5 hPa 0,0 l/m 2,2 km/h (1 Bft) SO 130 0 min 0 W/m 15,7 C 17,9 C 4,8 km/h (1 Bft)
07.08.2020 03:24 17,8 C 87 % 1019,4 hPa 0,0 l/m 2,9 km/h (1 Bft) SO 130 0 min 0 W/m 15,6 C 17,8 C 6,4 km/h (2 Bft)
07.08.2020 03:27 17,8 C 87 % 1019,4 hPa 0,0 l/m 3,2 km/h (1 Bft) SO 130 0 min 0 W/m 15,6 C 17,8 C 6,4 km/h (2 Bft)
07.08.2020 03:30 17,8 C 87 % 1019,4 hPa 0,0 l/m 2,3 km/h (1 Bft) SO 130 0 min 0 W/m 15,6 C 17,8 C 4,8 km/h (1 Bft)
07.08.2020 03:33 17,7 C 87 % 1019,5 hPa 0,0 l/m 2,9 km/h (1 Bft) SO 130 0 min 0 W/m 15,5 C 17,7 C 4,8 km/h (1 Bft)
07.08.2020 03:36 17,7 C 86 % 1019,5 hPa 0,0 l/m 1,8 km/h (1 Bft) SO 130 0 min 0 W/m 15,3 C 17,7 C 4,8 km/h (1 Bft)
07.08.2020 03:39 17,7 C 86 % 1019,5 hPa 0,0 l/m 1,4 km/h (1 Bft) SO 130 0 min 0 W/m 15,3 C 17,7 C 6,4 km/h (2 Bft)
07.08.2020 03:42 17,6 C 86 % 1019,5 hPa 0,0 l/m 2,3 km/h (1 Bft) SO 130 0 min 0 W/m 15,2 C 17,6 C 4,8 km/h (1 Bft)
07.08.2020 03:45 17,6 C 85 % 1019,5 hPa 0,0 l/m 2,1 km/h (1 Bft) SO 130 0 min 0 W/m 15,0 C 17,6 C 3,2 km/h (1 Bft)
07.08.2020 03:48 17,5 C 85 % 1019,5 hPa 0,0 l/m 1,5 km/h (1 Bft) SO 130 0 min 0 W/m 14,9 C 17,5 C 3,2 km/h (1 Bft)
07.08.2020 03:51 17,4 C 85 % 1019,5 hPa 0,0 l/m 1,9 km/h (1 Bft) SO 130 0 min 0 W/m 14,8 C 17,4 C 4,8 km/h (1 Bft)
07.08.2020 03:54 17,4 C 84 % 1019,5 hPa 0,0 l/m 2,8 km/h (1 Bft) SO 130 0 min 0 W/m 14,7 C 17,4 C 4,8 km/h (1 Bft)
07.08.2020 03:57 17,4 C 84 % 1019,6 hPa 0,0 l/m 3,2 km/h (1 Bft) SO 130 0 min 0 W/m 14,7 C 17,4 C 6,4 km/h (2 Bft)
07.08.2020 04:00 17,3 C 84 % 1019,5 hPa 0,0 l/m 3,0 km/h (1 Bft) SO 130 0 min 0 W/m 14,6 C 17,3 C 6,4 km/h (2 Bft)
07.08.2020 04:03 17,3 C 84 % 1019,5 hPa 0,0 l/m 1,9 km/h (1 Bft) SO 130 0 min 0 W/m 14,6 C 17,3 C 6,4 km/h (2 Bft)
07.08.2020 04:06 17,3 C 84 % 1019,5 hPa 0,0 l/m 2,6 km/h (1 Bft) SO 130 0 min 0 W/m 14,6 C 17,3 C 4,8 km/h (1 Bft)
07.08.2020 04:09 17,2 C 84 % 1019,5 hPa 0,0 l/m 3,2 km/h (1 Bft) SO 130 0 min 0 W/m 14,5 C 17,2 C 6,4 km/h (2 Bft)
07.08.2020 04:12 17,2 C 83 % 1019,5 hPa 0,0 l/m 2,0 km/h (1 Bft) SO 130 0 min 0 W/m 14,3 C 17,2 C 4,8 km/h (1 Bft)
07.08.2020 04:15 17,2 C 83 % 1019,5 hPa 0,0 l/m 2,2 km/h (1 Bft) SO 130 0 min 0 W/m 14,3 C 17,2 C 6,4 km/h (2 Bft)
07.08.2020 04:18 17,2 C 83 % 1019,5 hPa 0,0 l/m 1,8 km/h (1 Bft) SO 130 0 min 0 W/m 14,3 C 17,2 C 3,2 km/h (1 Bft)
07.08.2020 04:21 17,2 C 83 % 1019,5 hPa 0,0 l/m 1,2 km/h (1 Bft) SO 130 0 min 0 W/m 14,3 C 17,2 C 3,2 km/h (1 Bft)
07.08.2020 04:24 17,2 C 83 % 1019,5 hPa 0,0 l/m 1,9 km/h (1 Bft) SO 130 0 min 0 W/m 14,3 C 17,2 C 3,2 km/h (1 Bft)
07.08.2020 04:27 17,2 C 83 % 1019,5 hPa 0,0 l/m 1,2 km/h (1 Bft) SO 130 0 min 0 W/m 14,3 C 17,2 C 3,2 km/h (1 Bft)
07.08.2020 04:30 17,1 C 83 % 1019,5 hPa 0,0 l/m 2,7 km/h (1 Bft) SO 130 0 min 0 W/m 14,2 C 17,1 C 4,8 km/h (1 Bft)
07.08.2020 04:33 17,1 C 83 % 1019,5 hPa 0,0 l/m 2,1 km/h (1 Bft) SO 130 0 min 0 W/m 14,2 C 17,1 C 4,8 km/h (1 Bft)
07.08.2020 04:36 17,1 C 83 % 1019,5 hPa 0,0 l/m 2,2 km/h (1 Bft) SO 130 0 min 0 W/m 14,2 C 17,1 C 4,8 km/h (1 Bft)
07.08.2020 04:39 17,1 C 83 % 1019,4 hPa 0,0 l/m 2,6 km/h (1 Bft) SO 130 0 min 0 W/m 14,2 C 17,1 C 6,4 km/h (2 Bft)
07.08.2020 04:42 17,1 C 83 % 1019,5 hPa 0,0 l/m 2,3 km/h (1 Bft) SO 130 0 min 0 W/m 14,2 C 17,1 C 6,4 km/h (2 Bft)
07.08.2020 04:45 17,0 C 83 % 1019,5 hPa 0,0 l/m 1,9 km/h (1 Bft) SO 130 0 min 0 W/m 14,1 C 17,0 C 6,4 km/h (2 Bft)
07.08.2020 04:48 17,0 C 83 % 1019,5 hPa 0,0 l/m 2,0 km/h (1 Bft) SO 130 0 min 0 W/m 14,1 C 17,0 C 3,2 km/h (1 Bft)
07.08.2020 04:51 16,9 C 83 % 1019,6 hPa 0,0 l/m 1,8 km/h (1 Bft) SO 130 0 min 0 W/m 14,0 C 16,9 C 4,8 km/h (1 Bft)
07.08.2020 04:54 16,9 C 83 % 1019,5 hPa 0,0 l/m 3,2 km/h (1 Bft) SO 130 0 min 0 W/m 14,0 C 16,9 C 6,4 km/h (2 Bft)
07.08.2020 04:57 16,9 C 83 % 1019,5 hPa 0,0 l/m 3,1 km/h (1 Bft) SO 130 0 min 0 W/m 14,0 C 16,9 C 6,4 km/h (2 Bft)
07.08.2020 05:00 16,9 C 83 % 1019,5 hPa 0,0 l/m 3,1 km/h (1 Bft) SO 130 0 min 0 W/m 14,0 C 16,9 C 6,4 km/h (2 Bft)
07.08.2020 05:03 16,8 C 83 % 1019,5 hPa 0,0 l/m 2,4 km/h (1 Bft) SO 130 0 min 0 W/m 13,9 C 16,8 C 4,8 km/h (1 Bft)
07.08.2020 05:06 16,8 C 83 % 1019,5 hPa 0,0 l/m 3,2 km/h (1 Bft) SO 130 0 min 0 W/m 13,9 C 16,8 C 6,4 km/h (2 Bft)
07.08.2020 05:09 16,8 C 83 % 1019,5 hPa 0,0 l/m 1,7 km/h (1 Bft) SO 130 0 min 0 W/m 13,9 C 16,8 C 3,2 km/h (1 Bft)
07.08.2020 05:12 16,8 C 83 % 1019,5 hPa 0,0 l/m 3,0 km/h (1 Bft) SO 131 0 min 0 W/m 13,9 C 16,8 C 6,4 km/h (2 Bft)
07.08.2020 05:15 16,8 C 83 % 1019,5 hPa 0,0 l/m 3,5 km/h (1 Bft) SO 131 0 min 0 W/m 13,9 C 16,8 C 6,4 km/h (2 Bft)
07.08.2020 05:18 16,8 C 83 % 1019,5 hPa 0,0 l/m 2,2 km/h (1 Bft) SO 131 0 min 0 W/m 13,9 C 16,8 C 6,4 km/h (2 Bft)
07.08.2020 05:21 16,7 C 83 % 1019,6 hPa 0,0 l/m 2,3 km/h (1 Bft) SO 131 0 min 0 W/m 13,8 C 16,7 C 4,8 km/h (1 Bft)
07.08.2020 05:24 16,7 C 83 % 1019,6 hPa 0,0 l/m 2,7 km/h (1 Bft) SO 131 0 min 0 W/m 13,8 C 16,7 C 6,4 km/h (2 Bft)
07.08.2020 05:27 16,7 C 83 % 1019,7 hPa 0,0 l/m 1,6 km/h (1 Bft) SO 131 0 min 0 W/m 13,8 C 16,7 C 3,2 km/h (1 Bft)
07.08.2020 05:30 16,7 C 83 % 1019,7 hPa 0,0 l/m 2,5 km/h (1 Bft) SO 131 0 min 0 W/m 13,8 C 16,7 C 6,4 km/h (2 Bft)
07.08.2020 05:33 16,7 C 83 % 1019,7 hPa 0,0 l/m 1,5 km/h (1 Bft) SO 131 0 min 0 W/m 13,8 C 16,7 C 4,8 km/h (1 Bft)
07.08.2020 05:36 16,7 C 83 % 1019,7 hPa 0,0 l/m 1,7 km/h (1 Bft) SO 131 0 min 0 W/m 13,8 C 16,7 C 4,8 km/h (1 Bft)
07.08.2020 05:39 16,7 C 83 % 1019,7 hPa 0,0 l/m 2,5 km/h (1 Bft) SO 131 0 min 0 W/m 13,8 C 16,7 C 6,4 km/h (2 Bft)
07.08.2020 05:42 16,7 C 83 % 1019,6 hPa 0,0 l/m 1,8 km/h (1 Bft) SO 131 0 min 0 W/m 13,8 C 16,7 C 4,8 km/h (1 Bft)
07.08.2020 05:45 16,6 C 83 % 1019,7 hPa 0,0 l/m 2,1 km/h (1 Bft) SO 131 0 min 0 W/m 13,7 C 16,6 C 4,8 km/h (1 Bft)
07.08.2020 05:48 16,6 C 83 % 1019,7 hPa 0,0 l/m 1,8 km/h (1 Bft) SO 131 0 min 0 W/m 13,7 C 16,6 C 4,8 km/h (1 Bft)
07.08.2020 05:51 16,6 C 83 % 1019,7 hPa 0,0 l/m 2,4 km/h (1 Bft) SO 131 0 min 0 W/m 13,7 C 16,6 C 6,4 km/h (2 Bft)
07.08.2020 05:54 16,5 C 82 % 1019,7 hPa 0,0 l/m 2,2 km/h (1 Bft) SO 131 0 min 0 W/m 13,4 C 16,5 C 6,4 km/h (2 Bft)
07.08.2020 05:57 16,4 C 82 % 1019,7 hPa 0,0 l/m 1,2 km/h (1 Bft) SO 131 0 min 0 W/m 13,3 C 16,4 C 3,2 km/h (1 Bft)
07.08.2020 06:00 16,4 C 82 % 1019,7 hPa 0,0 l/m 1,5 km/h (1 Bft) SO 131 0 min 5 W/m 13,3 C 16,4 C 6,4 km/h (2 Bft)
07.08.2020 06:03 16,4 C 82 % 1019,7 hPa 0,0 l/m 1,9 km/h (1 Bft) SO 131 0 min 5 W/m 13,3 C 16,4 C 4,8 km/h (1 Bft)
07.08.2020 06:06 16,3 C 82 % 1019,8 hPa 0,0 l/m 1,5 km/h (1 Bft) SO 131 0 min 7 W/m 13,2 C 16,3 C 4,8 km/h (1 Bft)
07.08.2020 06:09 16,3 C 82 % 1019,8 hPa 0,0 l/m 2,3 km/h (1 Bft) SO 130 0 min 7 W/m 13,2 C 16,3 C 6,4 km/h (2 Bft)
07.08.2020 06:12 16,3 C 83 % 1019,8 hPa 0,0 l/m 2,6 km/h (1 Bft) SO 130 0 min 9 W/m 13,4 C 16,3 C 6,4 km/h (2 Bft)
07.08.2020 06:15 16,3 C 82 % 1019,8 hPa 0,0 l/m 1,0 km/h (0 Bft) SO 130 0 min 9 W/m 13,2 C 16,3 C 4,8 km/h (1 Bft)
07.08.2020 06:18 16,3 C 82 % 1019,8 hPa 0,0 l/m 1,1 km/h (1 Bft) SO 130 0 min 11 W/m 13,2 C 16,3 C 3,2 km/h (1 Bft)
07.08.2020 06:21 16,2 C 82 % 1019,9 hPa 0,0 l/m 1,2 km/h (1 Bft) SO 130 0 min 11 W/m 13,1 C 16,2 C 4,8 km/h (1 Bft)
07.08.2020 06:24 16,2 C 82 % 1019,8 hPa 0,0 l/m 1,5 km/h (1 Bft) SO 130 0 min 12 W/m 13,1 C 16,2 C 4,8 km/h (1 Bft)
07.08.2020 06:27 16,2 C 82 % 1019,8 hPa 0,0 l/m 0,7 km/h (0 Bft) SO 130 0 min 12 W/m 13,1 C 16,2 C 1,6 km/h (1 Bft)
07.08.2020 06:30 16,2 C 82 % 1019,9 hPa 0,0 l/m 1,0 km/h (0 Bft) SO 130 0 min 14 W/m 13,1 C 16,2 C 3,2 km/h (1 Bft)
07.08.2020 06:33 16,1 C 83 % 1020,0 hPa 0,0 l/m 0,6 km/h (0 Bft) SO 130 0 min 14 W/m 13,2 C 16,1 C 3,2 km/h (1 Bft)
07.08.2020 06:36 16,2 C 83 % 1020,0 hPa 0,0 l/m 1,0 km/h (0 Bft) SO 130 0 min 16 W/m 13,3 C 16,2 C 3,2 km/h (1 Bft)
07.08.2020 06:39 16,1 C 82 % 1019,9 hPa 0,0 l/m 0,6 km/h (0 Bft) SO 130 0 min 16 W/m 13,0 C 16,1 C 1,6 km/h (1 Bft)
07.08.2020 06:42 16,1 C 82 % 1020,0 hPa 0,0 l/m 0,5 km/h (0 Bft) SO 130 0 min 16 W/m 13,0 C 16,1 C 3,2 km/h (1 Bft)
07.08.2020 06:45 16,1 C 82 % 1020,0 hPa 0,0 l/m 0,5 km/h (0 Bft) SO 130 0 min 18 W/m 13,0 C 16,1 C 1,6 km/h (1 Bft)
07.08.2020 06:48 16,1 C 82 % 1020,0 hPa 0,0 l/m 0,7 km/h (0 Bft) SO 130 0 min 18 W/m 13,0 C 16,1 C 1,6 km/h (1 Bft)
07.08.2020 06:51 16,1 C 82 % 1020,0 hPa 0,0 l/m 0,7 km/h (0 Bft) SO 130 0 min 19 W/m 13,0 C 16,1 C 1,6 km/h (1 Bft)
07.08.2020 06:54 16,1 C 82 % 1020,0 hPa 0,0 l/m 0,8 km/h (0 Bft) SO 130 0 min 19 W/m 13,0 C 16,1 C 3,2 km/h (1 Bft)
07.08.2020 06:57 16,1 C 82 % 1020,0 hPa 0,0 l/m 1,4 km/h (1 Bft) SO 130 0 min 21 W/m 13,0 C 16,1 C 3,2 km/h (1 Bft)
07.08.2020 07:00 16,1 C 82 % 1020,0 hPa 0,0 l/m 1,2 km/h (1 Bft) SO 130 0 min 21 W/m 13,0 C 16,1 C 3,2 km/h (1 Bft)
07.08.2020 07:03 16,1 C 82 % 1020,0 hPa 0,0 l/m 1,1 km/h (1 Bft) SO 130 0 min 21 W/m 13,0 C 16,1 C 4,8 km/h (1 Bft)
07.08.2020 07:06 16,1 C 82 % 1020,0 hPa 0,0 l/m 0,5 km/h (0 Bft) SO 130 0 min 21 W/m 13,0 C 16,1 C 1,6 km/h (1 Bft)
07.08.2020 07:09 16,1 C 82 % 1020,1 hPa 0,0 l/m 0,5 km/h (0 Bft) SO 137 0 min 23 W/m 13,0 C 16,1 C 1,6 km/h (1 Bft)
07.08.2020 07:12 16,1 C 82 % 1020,1 hPa 0,0 l/m 1,0 km/h (0 Bft) SO 138 0 min 23 W/m 13,0 C 16,1 C 3,2 km/h (1 Bft)
07.08.2020 07:15 16,1 C 82 % 1020,2 hPa 0,0 l/m 1,1 km/h (1 Bft) SO 138 0 min 23 W/m 13,0 C 16,1 C 3,2 km/h (1 Bft)
07.08.2020 07:18 16,1 C 82 % 1020,2 hPa 0,0 l/m 0,8 km/h (0 Bft) SO 138 0 min 25 W/m 13,0 C 16,1 C 3,2 km/h (1 Bft)
07.08.2020 07:21 16,1 C 82 % 1020,2 hPa 0,0 l/m 1,9 km/h (1 Bft) SO 138 0 min 25 W/m 13,0 C 16,1 C 3,2 km/h (1 Bft)
07.08.2020 07:24 16,1 C 82 % 1020,3 hPa 0,0 l/m 1,3 km/h (1 Bft) SO 138 0 min 25 W/m 13,0 C 16,1 C 3,2 km/h (1 Bft)
07.08.2020 07:27 16,2 C 82 % 1020,3 hPa 0,0 l/m 1,5 km/h (1 Bft) SO 138 0 min 26 W/m 13,1 C 16,2 C 3,2 km/h (1 Bft)
07.08.2020 07:30 16,2 C 82 % 1020,3 hPa 0,0 l/m 2,0 km/h (1 Bft) SO 138 0 min 26 W/m 13,1 C 16,2 C 4,8 km/h (1 Bft)
07.08.2020 07:33 16,2 C 82 % 1020,3 hPa 0,0 l/m 1,9 km/h (1 Bft) SO 138 0 min 26 W/m 13,1 C 16,2 C 3,2 km/h (1 Bft)
07.08.2020 07:36 16,3 C 82 % 1020,3 hPa 0,0 l/m 1,7 km/h (1 Bft) SO 138 0 min 26 W/m 13,2 C 16,3 C 3,2 km/h (1 Bft)
07.08.2020 07:39 16,3 C 82 % 1020,3 hPa 0,0 l/m 1,7 km/h (1 Bft) SO 138 0 min 28 W/m 13,2 C 16,3 C 4,8 km/h (1 Bft)
07.08.2020 07:42 16,3 C 82 % 1020,3 hPa 0,0 l/m 2,8 km/h (1 Bft) SO 138 0 min 28 W/m 13,2 C 16,3 C 6,4 km/h (2 Bft)
07.08.2020 07:45 16,4 C 82 % 1020,3 hPa 0,0 l/m 2,6 km/h (1 Bft) SO 138 0 min 28 W/m 13,3 C 16,4 C 4,8 km/h (1 Bft)
07.08.2020 07:48 16,5 C 82 % 1020,3 hPa 0,0 l/m 2,4 km/h (1 Bft) SO 138 0 min 28 W/m 13,4 C 16,5 C 4,8 km/h (1 Bft)
07.08.2020 07:51 16,6 C 82 % 1020,3 hPa 0,0 l/m 1,8 km/h (1 Bft) SO 138 0 min 28 W/m 13,5 C 16,6 C 3,2 km/h (1 Bft)
07.08.2020 07:54 16,6 C 82 % 1020,3 hPa 0,0 l/m 1,9 km/h (1 Bft) SO 138 0 min 30 W/m 13,5 C 16,6 C 3,2 km/h (1 Bft)
07.08.2020 07:57 16,7 C 82 % 1020,3 hPa 0,0 l/m 2,2 km/h (1 Bft) SO 138 0 min 30 W/m 13,6 C 16,7 C 4,8 km/h (1 Bft)
07.08.2020 08:00 16,8 C 82 % 1020,3 hPa 0,0 l/m 0,9 km/h (0 Bft) SO 138 0 min 30 W/m 13,7 C 16,8 C 3,2 km/h (1 Bft)
07.08.2020 08:03 16,8 C 82 % 1020,3 hPa 0,0 l/m 2,2 km/h (1 Bft) SO 138 0 min 30 W/m 13,7 C 16,8 C 4,8 km/h (1 Bft)
07.08.2020 08:06 16,9 C 82 % 1020,3 hPa 0,0 l/m 2,3 km/h (1 Bft) SO 138 0 min 30 W/m 13,8 C 16,9 C 4,8 km/h (1 Bft)
07.08.2020 08:09 17,0 C 82 % 1020,4 hPa 0,0 l/m 2,9 km/h (1 Bft) SO 138 0 min 32 W/m 13,9 C 17,0 C 4,8 km/h (1 Bft)
07.08.2020 08:12 17,1 C 82 % 1020,4 hPa 0,0 l/m 1,7 km/h (1 Bft) SO 138 0 min 32 W/m 14,0 C 17,1 C 3,2 km/h (1 Bft)
07.08.2020 08:15 17,2 C 82 % 1020,4 hPa 0,0 l/m 1,9 km/h (1 Bft) SO 138 0 min 32 W/m 14,1 C 17,2 C 4,8 km/h (1 Bft)
07.08.2020 08:18 17,2 C 82 % 1020,4 hPa 0,0 l/m 2,1 km/h (1 Bft) SO 138 0 min 32 W/m 14,1 C 17,2 C 4,8 km/h (1 Bft)
07.08.2020 08:21 17,3 C 82 % 1020,4 hPa 0,0 l/m 2,9 km/h (1 Bft) SO 138 0 min 33 W/m 14,2 C 17,3 C 4,8 km/h (1 Bft)
07.08.2020 08:24 17,4 C 82 % 1020,4 hPa 0,0 l/m 1,9 km/h (1 Bft) SO 138 0 min 33 W/m 14,3 C 17,4 C 3,2 km/h (1 Bft)
07.08.2020 08:27 17,4 C 83 % 1020,4 hPa 0,0 l/m 1,8 km/h (1 Bft) SO 138 0 min 33 W/m 14,5 C 17,4 C 3,2 km/h (1 Bft)
07.08.2020 08:30 17,6 C 83 % 1020,4 hPa 0,0 l/m 2,3 km/h (1 Bft) SO 138 0 min 35 W/m 14,7 C 17,6 C 4,8 km/h (1 Bft)
07.08.2020 08:33 17,7 C 83 % 1020,4 hPa 0,0 l/m 3,0 km/h (1 Bft) SO 138 0 min 35 W/m 14,8 C 17,7 C 6,4 km/h (2 Bft)
07.08.2020 08:36 17,8 C 82 % 1020,4 hPa 0,0 l/m 1,3 km/h (1 Bft) SO 138 0 min 35 W/m 14,7 C 17,8 C 3,2 km/h (1 Bft)
07.08.2020 08:39 17,8 C 82 % 1020,4 hPa 0,0 l/m 1,7 km/h (1 Bft) SO 138 0 min 37 W/m 14,7 C 17,8 C 3,2 km/h (1 Bft)
07.08.2020 08:42 17,9 C 82 % 1020,4 hPa 0,0 l/m 1,3 km/h (1 Bft) SO 138 0 min 37 W/m 14,8 C 17,9 C 6,4 km/h (2 Bft)
07.08.2020 08:45 18,1 C 82 % 1020,4 hPa 0,0 l/m 1,8 km/h (1 Bft) SO 138 0 min 40 W/m 15,0 C 18,1 C 4,8 km/h (1 Bft)
07.08.2020 08:48 18,2 C 82 % 1020,3 hPa 0,0 l/m 2,6 km/h (1 Bft) SO 138 0 min 40 W/m 15,1 C 18,2 C 4,8 km/h (1 Bft)
07.08.2020 08:51 18,3 C 82 % 1020,4 hPa 0,0 l/m 2,0 km/h (1 Bft) SO 138 0 min 42 W/m 15,2 C 18,3 C 4,8 km/h (1 Bft)
07.08.2020 08:54 18,4 C 82 % 1020,4 hPa 0,0 l/m 1,5 km/h (1 Bft) SO 138 0 min 42 W/m 15,3 C 18,4 C 3,2 km/h (1 Bft)
07.08.2020 08:57 18,6 C 83 % 1020,4 hPa 0,0 l/m 1,4 km/h (1 Bft) SO 138 0 min 44 W/m 15,7 C 18,6 C 4,8 km/h (1 Bft)
07.08.2020 09:00 18,7 C 82 % 1020,3 hPa 0,0 l/m 1,9 km/h (1 Bft) SO 138 0 min 51 W/m 15,6 C 18,7 C 4,8 km/h (1 Bft)
07.08.2020 09:03 18,8 C 82 % 1020,4 hPa 0,0 l/m 1,7 km/h (1 Bft) SO 138 0 min 54 W/m 15,7 C 18,8 C 3,2 km/h (1 Bft)
07.08.2020 09:06 18,9 C 83 % 1020,5 hPa 0,0 l/m 1,6 km/h (1 Bft) SO 138 0 min 130 W/m 15,9 C 18,9 C 4,8 km/h (1 Bft)
07.08.2020 09:09 19,0 C 82 % 1020,5 hPa 0,0 l/m 3,7 km/h (1 Bft) SO 136 3 min 262 W/m 15,9 C 19,0 C 8,0 km/h (2 Bft)
07.08.2020 09:12 19,1 C 81 % 1020,5 hPa 0,0 l/m 2,5 km/h (1 Bft) SO 136 0 min 139 W/m 15,8 C 19,1 C 4,8 km/h (1 Bft)
07.08.2020 09:15 19,3 C 81 % 1020,5 hPa 0,0 l/m 2,6 km/h (1 Bft) SO 136 0 min 130 W/m 16,0 C 19,3 C 8,0 km/h (2 Bft)
07.08.2020 09:18 19,4 C 81 % 1020,5 hPa 0,0 l/m 3,1 km/h (1 Bft) SO 136 0 min 84 W/m 16,1 C 19,4 C 8,0 km/h (2 Bft)
07.08.2020 09:21 19,6 C 80 % 1020,5 hPa 0,0 l/m 3,9 km/h (1 Bft) SO 137 0 min 158 W/m 16,1 C 19,6 C 8,0 km/h (2 Bft)
07.08.2020 09:24 19,7 C 79 % 1020,5 hPa 0,0 l/m 3,4 km/h (1 Bft) SO 137 3 min 404 W/m 16,0 C 19,7 C 8,0 km/h (2 Bft)
07.08.2020 09:27 19,9 C 77 % 1020,5 hPa 0,0 l/m 5,0 km/h (1 Bft) SO 136 3 min 392 W/m 15,7 C 19,9 C 11,3 km/h (2 Bft)
07.08.2020 09:30 20,2 C 76 % 1020,5 hPa 0,0 l/m 5,2 km/h (1 Bft) SO 132 3 min 369 W/m 15,8 C 20,2 C 8,0 km/h (2 Bft)
07.08.2020 09:33 20,5 C 74 % 1020,5 hPa 0,0 l/m 5,2 km/h (1 Bft) SO 130 3 min 353 W/m 15,7 C 20,5 C 11,3 km/h (2 Bft)
07.08.2020 09:36 20,8 C 73 % 1020,4 hPa 0,0 l/m 4,0 km/h (1 Bft) S 190 3 min 338 W/m 15,8 C 20,8 C 14,5 km/h (3 Bft)
07.08.2020 09:39 21,1 C 72 % 1020,5 hPa 0,0 l/m 4,9 km/h (1 Bft) SO 128 3 min 338 W/m 15,8 C 21,1 C 12,9 km/h (3 Bft)
07.08.2020 09:42 21,4 C 71 % 1020,4 hPa 0,0 l/m 5,0 km/h (1 Bft) SO 132 3 min 352 W/m 15,9 C 21,4 C 12,9 km/h (3 Bft)
07.08.2020 09:45 21,8 C 70 % 1020,5 hPa 0,0 l/m 5,1 km/h (1 Bft) SO 133 3 min 369 W/m 16,1 C 21,8 C 11,3 km/h (2 Bft)
07.08.2020 09:48 22,2 C 69 % 1020,5 hPa 0,0 l/m 4,5 km/h (1 Bft) SO 134 3 min 390 W/m 16,2 C 22,2 C 8,0 km/h (2 Bft)
07.08.2020 09:51 22,5 C 66 % 1020,5 hPa 0,0 l/m 5,4 km/h (2 Bft) SO 134 3 min 396 W/m 15,8 C 22,5 C 11,3 km/h (2 Bft)
07.08.2020 09:54 22,9 C 67 % 1020,5 hPa 0,0 l/m 4,4 km/h (1 Bft) SO 145 3 min 401 W/m 16,4 C 22,9 C 12,9 km/h (3 Bft)
07.08.2020 09:57 23,2 C 65 % 1020,5 hPa 0,0 l/m 7,1 km/h (2 Bft) SO 130 3 min 401 W/m 16,2 C 23,0 C 14,5 km/h (3 Bft)
07.08.2020 10:00 23,6 C 63 % 1020,5 hPa 0,0 l/m 5,8 km/h (2 Bft) SO 137 3 min 404 W/m 16,1 C 23,6 C 14,5 km/h (3 Bft)
07.08.2020 10:03 23,8 C 64 % 1020,5 hPa 0,0 l/m 4,2 km/h (1 Bft) SO 137 3 min 411 W/m 16,6 C 23,8 C 8,0 km/h (2 Bft)
07.08.2020 10:06 24,2 C 61 % 1020,5 hPa 0,0 l/m 5,6 km/h (2 Bft) SO 137 3 min 429 W/m 16,2 C 24,2 C 14,5 km/h (3 Bft)
07.08.2020 10:09 24,4 C 61 % 1020,5 hPa 0,0 l/m 4,3 km/h (1 Bft) SO 137 3 min 443 W/m 16,4 C 24,4 C 11,3 km/h (2 Bft)
07.08.2020 10:12 24,7 C 62 % 1020,5 hPa 0,0 l/m 2,9 km/h (1 Bft) SO 137 3 min 468 W/m 16,9 C 24,7 C 4,8 km/h (1 Bft)
07.08.2020 10:15 24,9 C 60 % 1020,5 hPa 0,0 l/m 4,5 km/h (1 Bft) SO 137 3 min 487 W/m 16,6 C 24,9 C 11,3 km/h (2 Bft)
07.08.2020 10:18 25,1 C 61 % 1020,4 hPa 0,0 l/m 3,4 km/h (1 Bft) SO 138 3 min 522 W/m 17,0 C 25,1 C 6,4 km/h (2 Bft)
07.08.2020 10:21 25,3 C 61 % 1020,4 hPa 0,0 l/m 2,5 km/h (1 Bft) SO 138 3 min 541 W/m 17,2 C 25,3 C 6,4 km/h (2 Bft)
07.08.2020 10:24 25,5 C 63 % 1020,4 hPa 0,0 l/m 3,7 km/h (1 Bft) SO 136 3 min 564 W/m 17,9 C 25,5 C 8,0 km/h (2 Bft)
07.08.2020 10:27 25,7 C 63 % 1020,4 hPa 0,0 l/m 2,9 km/h (1 Bft) SO 136 3 min 575 W/m 18,1 C 25,7 C 6,4 km/h (2 Bft)
07.08.2020 10:30 25,9 C 66 % 1020,5 hPa 0,0 l/m 2,3 km/h (1 Bft) SO 136 3 min 589 W/m 19,0 C 25,9 C 4,8 km/h (1 Bft)
07.08.2020 10:33 26,1 C 66 % 1020,5 hPa 0,0 l/m 3,4 km/h (1 Bft) SO 136 3 min 596 W/m 19,2 C 26,1 C 8,0 km/h (2 Bft)
07.08.2020 10:36 26,3 C 66 % 1020,5 hPa 0,0 l/m 2,4 km/h (1 Bft) SO 136 3 min 601 W/m 19,4 C 26,3 C 6,4 km/h (2 Bft)
07.08.2020 10:39 26,4 C 66 % 1020,5 hPa 0,0 l/m 2,5 km/h (1 Bft) SO 136 3 min 606 W/m 19,5 C 26,4 C 6,4 km/h (2 Bft)
07.08.2020 10:42 26,6 C 67 % 1020,5 hPa 0,0 l/m 2,0 km/h (1 Bft) SO 136 3 min 613 W/m 20,0 C 26,6 C 4,8 km/h (1 Bft)
07.08.2020 10:45 26,7 C 66 % 1020,5 hPa 0,0 l/m 2,9 km/h (1 Bft) SO 134 3 min 621 W/m 19,8 C 26,7 C 8,0 km/h (2 Bft)
07.08.2020 10:48 26,8 C 66 % 1020,5 hPa 0,0 l/m 2,2 km/h (1 Bft) SO 134 3 min 626 W/m 19,9 C 26,8 C 4,8 km/h (1 Bft)
07.08.2020 10:51 26,9 C 66 % 1020,5 hPa 0,0 l/m 2,6 km/h (1 Bft) SO 134 3 min 633 W/m 20,0 C 26,9 C 4,8 km/h (1 Bft)
07.08.2020 10:54 27,1 C 65 % 1020,4 hPa 0,0 l/m 3,2 km/h (1 Bft) SO 133 3 min 638 W/m 19,9 C 27,1 C 6,4 km/h (2 Bft)
07.08.2020 10:57 27,2 C 65 % 1020,4 hPa 0,0 l/m 2,6 km/h (1 Bft) SO 133 3 min 647 W/m 20,0 C 27,2 C 4,8 km/h (1 Bft)
07.08.2020 11:00 27,2 C 64 % 1020,4 hPa 0,0 l/m 2,9 km/h (1 Bft) SO 133 3 min 650 W/m 19,8 C 27,2 C 6,4 km/h (2 Bft)
07.08.2020 11:03 27,3 C 64 % 1020,4 hPa 0,0 l/m 2,3 km/h (1 Bft) SO 133 3 min 656 W/m 19,9 C 27,3 C 4,8 km/h (1 Bft)
07.08.2020 11:06 27,4 C 64 % 1020,4 hPa 0,0 l/m 1,9 km/h (1 Bft) SO 133 3 min 661 W/m 20,0 C 27,4 C 4,8 km/h (1 Bft)
07.08.2020 11:09 27,5 C 63 % 1020,4 hPa 0,0 l/m 2,8 km/h (1 Bft) SO 133 3 min 668 W/m 19,8 C 27,5 C 6,4 km/h (2 Bft)
07.08.2020 11:12 27,6 C 63 % 1020,4 hPa 0,0 l/m 3,3 km/h (1 Bft) SO 133 3 min 670 W/m 19,9 C 27,6 C 6,4 km/h (2 Bft)
07.08.2020 11:15 27,7 C 64 % 1020,4 hPa 0,0 l/m 2,6 km/h (1 Bft) SO 133 3 min 675 W/m 20,3 C 27,7 C 8,0 km/h (2 Bft)
07.08.2020 11:18 27,7 C 62 % 1020,4 hPa 0,0 l/m 3,9 km/h (1 Bft) SO 133 3 min 680 W/m 19,7 C 27,7 C 6,4 km/h (2 Bft)
07.08.2020 11:21 27,8 C 63 % 1020,4 hPa 0,0 l/m 2,8 km/h (1 Bft) SO 133 3 min 687 W/m 20,1 C 27,8 C 6,4 km/h (2 Bft)
07.08.2020 11:24 27,9 C 62 % 1020,4 hPa 0,0 l/m 3,0 km/h (1 Bft) SO 133 3 min 691 W/m 19,9 C 27,9 C 6,4 km/h (2 Bft)
07.08.2020 11:27 28,0 C 61 % 1020,4 hPa 0,0 l/m 3,7 km/h (1 Bft) SO 133 3 min 696 W/m 19,8 C 28,0 C 6,4 km/h (2 Bft)
07.08.2020 11:30 28,1 C 60 % 1020,4 hPa 0,0 l/m 4,3 km/h (1 Bft) N 5 3 min 700 W/m 19,6 C 28,1 C 8,0 km/h (2 Bft)
07.08.2020 11:33 28,1 C 61 % 1020,4 hPa 0,0 l/m 3,5 km/h (1 Bft) N 10 3 min 707 W/m 19,9 C 28,1 C 8,0 km/h (2 Bft)
07.08.2020 11:36 28,2 C 60 % 1020,4 hPa 0,0 l/m 3,6 km/h (1 Bft) N 11 3 min 708 W/m 19,7 C 28,2 C 6,4 km/h (2 Bft)
07.08.2020 11:39 28,3 C 60 % 1020,4 hPa 0,0 l/m 2,7 km/h (1 Bft) N-NO 14 3 min 715 W/m 19,8 C 28,3 C 6,4 km/h (2 Bft)
07.08.2020 11:42 28,4 C 60 % 1020,4 hPa 0,0 l/m 2,6 km/h (1 Bft) N-NO 14 3 min 719 W/m 19,9 C 28,4 C 4,8 km/h (1 Bft)
07.08.2020 11:45 28,5 C 60 % 1020,4 hPa 0,0 l/m 2,7 km/h (1 Bft) N-NO 15 3 min 722 W/m 20,0 C 28,5 C 4,8 km/h (1 Bft)
07.08.2020 11:48 28,6 C 59 % 1020,3 hPa 0,0 l/m 4,0 km/h (1 Bft) N-NO 30 3 min 724 W/m 19,8 C 28,6 C 8,0 km/h (2 Bft)
07.08.2020 11:51 28,7 C 58 % 1020,3 hPa 0,0 l/m 2,8 km/h (1 Bft) N-NO 30 3 min 731 W/m 19,6 C 28,7 C 4,8 km/h (1 Bft)
07.08.2020 11:54 28,8 C 58 % 1020,4 hPa 0,0 l/m 3,4 km/h (1 Bft) NO 34 3 min 733 W/m 19,7 C 28,8 C 9,7 km/h (2 Bft)
07.08.2020 11:57 28,9 C 58 % 1020,3 hPa 0,0 l/m 3,9 km/h (1 Bft) NO 40 3 min 737 W/m 19,8 C 28,9 C 9,7 km/h (2 Bft)
07.08.2020 12:00 29,1 C 58 % 1020,3 hPa 0,0 l/m 4,2 km/h (1 Bft) NO 35 3 min 737 W/m 20,0 C 29,1 C 9,7 km/h (2 Bft)
07.08.2020 12:03 29,2 C 58 % 1020,3 hPa 0,0 l/m 4,0 km/h (1 Bft) NO 34 3 min 724 W/m 20,1 C 29,2 C 6,4 km/h (2 Bft)
07.08.2020 12:06 29,3 C 57 % 1020,2 hPa 0,0 l/m 2,9 km/h (1 Bft) NO 34 3 min 714 W/m 19,9 C 29,3 C 6,4 km/h (2 Bft)
07.08.2020 12:09 29,3 C 57 % 1020,2 hPa 0,0 l/m 2,9 km/h (1 Bft) NO 34 3 min 694 W/m 19,9 C 29,3 C 8,0 km/h (2 Bft)
07.08.2020 12:12 29,4 C 57 % 1020,2 hPa 0,0 l/m 3,9 km/h (1 Bft) N-NO 32 3 min 680 W/m 20,0 C 29,4 C 6,4 km/h (2 Bft)
07.08.2020 12:15 29,6 C 58 % 1020,2 hPa 0,0 l/m 3,9 km/h (1 Bft) N 360 3 min 657 W/m 20,4 C 29,6 C 6,4 km/h (2 Bft)
07.08.2020 12:18 29,7 C 57 % 1020,2 hPa 0,0 l/m 3,2 km/h (1 Bft) N 5 3 min 640 W/m 20,2 C 29,7 C 6,4 km/h (2 Bft)
07.08.2020 12:21 29,8 C 58 % 1020,2 hPa 0,0 l/m 2,9 km/h (1 Bft) NO 50 3 min 619 W/m 20,6 C 29,8 C 11,3 km/h (2 Bft)
07.08.2020 12:24 29,9 C 56 % 1020,2 hPa 0,0 l/m 5,1 km/h (1 Bft) N-NO 24 3 min 610 W/m 20,1 C 29,9 C 12,9 km/h (3 Bft)
07.08.2020 12:27 29,9 C 56 % 1020,2 hPa 0,0 l/m 3,4 km/h (1 Bft) N-NO 24 3 min 594 W/m 20,1 C 29,9 C 6,4 km/h (2 Bft)
07.08.2020 12:30 30,0 C 56 % 1020,2 hPa 0,0 l/m 3,7 km/h (1 Bft) N 11 3 min 598 W/m 20,2 C 30,0 C 11,3 km/h (2 Bft)
07.08.2020 12:33 30,1 C 55 % 1020,3 hPa 0,0 l/m 4,9 km/h (1 Bft) N-NO 21 3 min 603 W/m 20,0 C 30,1 C 14,5 km/h (3 Bft)
07.08.2020 12:36 30,0 C 53 % 1020,2 hPa 0,0 l/m 5,6 km/h (2 Bft) NO 50 3 min 613 W/m 19,4 C 30,0 C 16,1 km/h (3 Bft)
07.08.2020 12:39 30,0 C 54 % 1020,2 hPa 0,0 l/m 4,5 km/h (1 Bft) NO 56 3 min 635 W/m 19,7 C 30,0 C 11,3 km/h (2 Bft)
07.08.2020 12:42 30,1 C 52 % 1020,2 hPa 0,0 l/m 4,1 km/h (1 Bft) O-NO 59 3 min 652 W/m 19,1 C 30,1 C 11,3 km/h (2 Bft)
07.08.2020 12:45 30,1 C 52 % 1020,2 hPa 0,0 l/m 4,2 km/h (1 Bft) NO 42 3 min 682 W/m 19,1 C 30,1 C 8,0 km/h (2 Bft)
07.08.2020 12:48 30,1 C 53 % 1020,2 hPa 0,0 l/m 4,3 km/h (1 Bft) O-NO 57 3 min 712 W/m 19,4 C 30,1 C 12,9 km/h (3 Bft)
07.08.2020 12:51 30,2 C 51 % 1020,2 hPa 0,0 l/m 6,5 km/h (2 Bft) O-NO 74 3 min 731 W/m 18,9 C 30,2 C 12,9 km/h (3 Bft)
07.08.2020 12:54 30,2 C 52 % 1020,1 hPa 0,0 l/m 4,8 km/h (1 Bft) NO 42 3 min 758 W/m 19,2 C 30,2 C 12,9 km/h (3 Bft)
07.08.2020 12:57 30,3 C 50 % 1020,1 hPa 0,0 l/m 4,4 km/h (1 Bft) O-NO 75 3 min 768 W/m 18,7 C 30,3 C 9,7 km/h (2 Bft)
07.08.2020 13:00 30,4 C 50 % 1020,1 hPa 0,0 l/m 3,9 km/h (1 Bft) NO 41 3 min 782 W/m 18,8 C 30,4 C 16,1 km/h (3 Bft)
07.08.2020 13:03 30,4 C 51 % 1020,1 hPa 0,0 l/m 5,2 km/h (1 Bft) O 93 3 min 786 W/m 19,1 C 30,4 C 11,3 km/h (2 Bft)
07.08.2020 13:06 30,5 C 49 % 1020,1 hPa 0,0 l/m 5,6 km/h (2 Bft) O-NO 76 3 min 788 W/m 18,6 C 30,5 C 12,9 km/h (3 Bft)
07.08.2020 13:09 30,6 C 49 % 1020,1 hPa 0,0 l/m 2,2 km/h (1 Bft) O-NO 76 3 min 788 W/m 18,6 C 30,6 C 4,8 km/h (1 Bft)
07.08.2020 13:12 30,7 C 49 % 1020,0 hPa 0,0 l/m 2,9 km/h (1 Bft) O-NO 74 3 min 791 W/m 18,7 C 30,7 C 4,8 km/h (1 Bft)
07.08.2020 13:15 30,7 C 48 % 1020,0 hPa 0,0 l/m 5,1 km/h (1 Bft) O-NO 61 3 min 789 W/m 18,4 C 30,7 C 9,7 km/h (2 Bft)
07.08.2020 13:18 30,8 C 48 % 1019,9 hPa 0,0 l/m 3,5 km/h (1 Bft) N-NO 16 3 min 793 W/m 18,5 C 30,8 C 12,9 km/h (3 Bft)
07.08.2020 13:21 30,9 C 50 % 1019,9 hPa 0,0 l/m 3,4 km/h (1 Bft) N-NO 31 3 min 796 W/m 19,2 C 30,9 C 8,0 km/h (2 Bft)
07.08.2020 13:24 31,0 C 47 % 1019,9 hPa 0,0 l/m 3,2 km/h (1 Bft) N-NO 32 3 min 796 W/m 18,3 C 31,0 C 8,0 km/h (2 Bft)
07.08.2020 13:27 31,1 C 45 % 1019,9 hPa 0,0 l/m 3,7 km/h (1 Bft) O 90 3 min 798 W/m 17,7 C 31,1 C 8,0 km/h (2 Bft)
07.08.2020 13:30 31,2 C 48 % 1019,9 hPa 0,0 l/m 3,0 km/h (1 Bft) O 90 3 min 800 W/m 18,9 C 31,2 C 6,4 km/h (2 Bft)
07.08.2020 13:33 31,3 C 48 % 1019,9 hPa 0,0 l/m 2,3 km/h (1 Bft) O 90 3 min 802 W/m 18,9 C 31,3 C 6,4 km/h (2 Bft)
07.08.2020 13:36 31,3 C 48 % 1019,9 hPa 0,0 l/m 2,6 km/h (1 Bft) O 94 3 min 803 W/m 18,9 C 31,3 C 6,4 km/h (2 Bft)
07.08.2020 13:39 31,4 C 45 % 1019,9 hPa 0,0 l/m 3,9 km/h (1 Bft) NO 49 3 min 807 W/m 18,0 C 31,4 C 9,7 km/h (2 Bft)
07.08.2020 13:42 31,6 C 46 % 1019,9 hPa 0,0 l/m 5,5 km/h (2 Bft) O-NO 57 3 min 814 W/m 18,5 C 31,6 C 14,5 km/h (3 Bft)
07.08.2020 13:45 31,6 C 44 % 1020,0 hPa 0,0 l/m 4,7 km/h (1 Bft) O-NO 58 3 min 728 W/m 17,8 C 31,6 C 8,0 km/h (2 Bft)
07.08.2020 13:48 31,7 C 43 % 1020,0 hPa 0,0 l/m 5,0 km/h (1 Bft) NO 40 3 min 564 W/m 17,6 C 31,7 C 11,3 km/h (2 Bft)
07.08.2020 13:51 31,7 C 47 % 1019,9 hPa 0,0 l/m 2,8 km/h (1 Bft) NO 39 3 min 782 W/m 19,0 C 31,7 C 4,8 km/h (1 Bft)
07.08.2020 13:54 31,8 C 44 % 1019,9 hPa 0,0 l/m 3,3 km/h (1 Bft) O 80 3 min 802 W/m 18,0 C 31,8 C 8,0 km/h (2 Bft)
07.08.2020 13:57 31,8 C 45 % 1019,9 hPa 0,0 l/m 2,8 km/h (1 Bft) O 80 3 min 798 W/m 18,4 C 31,8 C 6,4 km/h (2 Bft)
07.08.2020 14:00 31,9 C 44 % 1019,9 hPa 0,0 l/m 3,3 km/h (1 Bft) O 79 3 min 798 W/m 18,1 C 31,9 C 6,4 km/h (2 Bft)
07.08.2020 14:03 31,9 C 42 % 1019,9 hPa 0,0 l/m 4,7 km/h (1 Bft) N 355 3 min 796 W/m 17,4 C 31,9 C 8,0 km/h (2 Bft)
07.08.2020 14:06 32,0 C 41 % 1019,9 hPa 0,0 l/m 4,1 km/h (1 Bft) N-NO 22 3 min 798 W/m 17,1 C 32,0 C 9,7 km/h (2 Bft)
07.08.2020 14:09 32,1 C 43 % 1019,9 hPa 0,0 l/m 2,9 km/h (1 Bft) N-NO 23 3 min 793 W/m 17,9 C 32,1 C 8,0 km/h (2 Bft)
07.08.2020 14:12 32,1 C 42 % 1019,8 hPa 0,0 l/m 2,7 km/h (1 Bft) N-NO 23 3 min 795 W/m 17,5 C 32,1 C 6,4 km/h (2 Bft)
07.08.2020 14:15 32,1 C 44 % 1019,8 hPa 0,0 l/m 3,1 km/h (1 Bft) N-NO 24 3 min 798 W/m 18,3 C 32,1 C 8,0 km/h (2 Bft)
07.08.2020 14:18 32,2 C 42 % 1019,8 hPa 0,0 l/m 4,0 km/h (1 Bft) N-NO 22 3 min 786 W/m 17,6 C 32,2 C 9,7 km/h (2 Bft)
07.08.2020 14:21 32,2 C 40 % 1019,7 hPa 0,0 l/m 4,5 km/h (1 Bft) O-NO 69 3 min 789 W/m 16,9 C 32,2 C 11,3 km/h (2 Bft)
07.08.2020 14:24 32,3 C 41 % 1019,8 hPa 0,0 l/m 5,5 km/h (2 Bft) O-NO 77 3 min 786 W/m 17,3 C 32,3 C 11,3 km/h (2 Bft)
07.08.2020 14:27 32,3 C 40 % 1019,7 hPa 0,0 l/m 4,1 km/h (1 Bft) NO 38 3 min 705 W/m 16,9 C 32,3 C 8,0 km/h (2 Bft)
07.08.2020 14:30 32,3 C 41 % 1019,7 hPa 0,0 l/m 4,5 km/h (1 Bft) NO 42 3 min 666 W/m 17,3 C 32,3 C 9,7 km/h (2 Bft)
07.08.2020 14:33 32,3 C 39 % 1019,7 hPa 0,0 l/m 4,3 km/h (1 Bft) NO 38 3 min 531 W/m 16,5 C 32,3 C 8,0 km/h (2 Bft)
07.08.2020 14:36 32,2 C 40 % 1019,7 hPa 0,0 l/m 3,2 km/h (1 Bft) NO 38 0 min 359 W/m 16,9 C 32,2 C 8,0 km/h (2 Bft)
07.08.2020 14:39 32,2 C 39 % 1019,7 hPa 0,0 l/m 2,3 km/h (1 Bft) NO 38 0 min 330 W/m 16,5 C 32,2 C 3,2 km/h (1 Bft)
07.08.2020 14:42 32,1 C 38 % 1019,6 hPa 0,0 l/m 2,9 km/h (1 Bft) NO 38 0 min 410 W/m 16,0 C 32,1 C 6,4 km/h (2 Bft)
07.08.2020 14:45 32,1 C 41 % 1019,7 hPa 0,0 l/m 1,8 km/h (1 Bft) NO 38 0 min 404 W/m 17,2 C 32,1 C 4,8 km/h (1 Bft)
07.08.2020 14:48 31,9 C 41 % 1019,6 hPa 0,0 l/m 3,5 km/h (1 Bft) O-NO 63 3 min 654 W/m 17,0 C 31,9 C 8,0 km/h (2 Bft)
07.08.2020 14:51 31,9 C 37 % 1019,6 hPa 0,0 l/m 4,8 km/h (1 Bft) O-NO 59 3 min 729 W/m 15,4 C 31,9 C 8,0 km/h (2 Bft)
07.08.2020 14:54 31,9 C 38 % 1019,6 hPa 0,0 l/m 3,6 km/h (1 Bft) NO 52 3 min 749 W/m 15,8 C 31,9 C 8,0 km/h (2 Bft)
07.08.2020 14:57 31,9 C 38 % 1019,6 hPa 0,0 l/m 3,4 km/h (1 Bft) NO 52 3 min 752 W/m 15,8 C 31,9 C 8,0 km/h (2 Bft)
07.08.2020 15:00 32,0 C 40 % 1019,6 hPa 0,0 l/m 2,1 km/h (1 Bft) NO 52 3 min 751 W/m 16,7 C 32,0 C 4,8 km/h (1 Bft)
07.08.2020 15:03 32,1 C 40 % 1019,5 hPa 0,0 l/m 3,5 km/h (1 Bft) NO 51 3 min 738 W/m 16,8 C 32,1 C 6,4 km/h (2 Bft)
07.08.2020 15:06 32,1 C 37 % 1019,6 hPa 0,0 l/m 4,4 km/h (1 Bft) NO 48 3 min 747 W/m 15,5 C 32,1 C 8,0 km/h (2 Bft)
07.08.2020 15:09 32,2 C 38 % 1019,5 hPa 0,0 l/m 5,1 km/h (1 Bft) N 9 3 min 747 W/m 16,0 C 32,2 C 12,9 km/h (3 Bft)
07.08.2020 15:12 32,3 C 38 % 1019,5 hPa 0,0 l/m 3,6 km/h (1 Bft) N-NO 28 3 min 747 W/m 16,1 C 32,3 C 9,7 km/h (2 Bft)
07.08.2020 15:15 32,3 C 36 % 1019,5 hPa 0,0 l/m 3,7 km/h (1 Bft) NO 43 3 min 740 W/m 15,3 C 32,3 C 9,7 km/h (2 Bft)
07.08.2020 15:18 32,4 C 36 % 1019,5 hPa 0,0 l/m 4,1 km/h (1 Bft) NO 42 3 min 728 W/m 15,4 C 32,4 C 11,3 km/h (2 Bft)
07.08.2020 15:21 32,6 C 37 % 1019,5 hPa 0,0 l/m 4,0 km/h (1 Bft) NO 39 3 min 722 W/m 16,0 C 32,6 C 9,7 km/h (2 Bft)
07.08.2020 15:24 32,6 C 36 % 1019,4 hPa 0,0 l/m 4,4 km/h (1 Bft) N-NW 342 3 min 719 W/m 15,6 C 32,6 C 9,7 km/h (2 Bft)
07.08.2020 15:27 32,7 C 36 % 1019,4 hPa 0,0 l/m 5,3 km/h (1 Bft) O-NO 58 3 min 715 W/m 15,6 C 32,7 C 14,5 km/h (3 Bft)
07.08.2020 15:30 32,7 C 34 % 1019,4 hPa 0,0 l/m 5,5 km/h (2 Bft) N-NO 32 3 min 708 W/m 14,8 C 32,7 C 14,5 km/h (3 Bft)
07.08.2020 15:33 32,8 C 36 % 1019,4 hPa 0,0 l/m 3,2 km/h (1 Bft) NO 37 3 min 707 W/m 15,7 C 32,8 C 6,4 km/h (2 Bft)
07.08.2020 15:36 32,8 C 38 % 1019,4 hPa 0,0 l/m 3,1 km/h (1 Bft) NO 40 3 min 705 W/m 16,6 C 32,8 C 8,0 km/h (2 Bft)
07.08.2020 15:39 32,9 C 35 % 1019,4 hPa 0,0 l/m 4,0 km/h (1 Bft) NO 40 3 min 701 W/m 15,4 C 32,9 C 8,0 km/h (2 Bft)
07.08.2020 15:42 32,9 C 37 % 1019,4 hPa 0,0 l/m 4,1 km/h (1 Bft) NO 40 3 min 694 W/m 16,2 C 32,9 C 8,0 km/h (2 Bft)
07.08.2020 15:45 33,1 C 36 % 1019,3 hPa 0,0 l/m 5,5 km/h (2 Bft) O-NO 63 3 min 691 W/m 16,0 C 33,1 C 14,5 km/h (3 Bft)
07.08.2020 15:48 33,1 C 35 % 1019,4 hPa 0,0 l/m 5,6 km/h (2 Bft) N-NO 30 3 min 684 W/m 15,6 C 33,1 C 11,3 km/h (2 Bft)
07.08.2020 15:51 33,1 C 34 % 1019,4 hPa 0,0 l/m 6,2 km/h (2 Bft) O 90 3 min 675 W/m 15,1 C 33,1 C 16,1 km/h (3 Bft)
07.08.2020 15:54 33,1 C 35 % 1019,3 hPa 0,0 l/m 4,0 km/h (1 Bft) O-NO 58 3 min 673 W/m 15,6 C 33,1 C 8,0 km/h (2 Bft)
07.08.2020 15:57 33,1 C 35 % 1019,3 hPa 0,0 l/m 4,1 km/h (1 Bft) NO 53 3 min 666 W/m 15,6 C 33,1 C 8,0 km/h (2 Bft)
07.08.2020 16:00 33,1 C 36 % 1019,3 hPa 0,0 l/m 3,8 km/h (1 Bft) NO 52 3 min 664 W/m 16,0 C 33,1 C 8,0 km/h (2 Bft)
07.08.2020 16:03 33,2 C 36 % 1019,2 hPa 0,0 l/m 2,8 km/h (1 Bft) NO 52 3 min 654 W/m 16,1 C 33,2 C 6,4 km/h (2 Bft)
07.08.2020 16:06 33,2 C 35 % 1019,2 hPa 0,0 l/m 4,3 km/h (1 Bft) NO 44 3 min 649 W/m 15,6 C 33,2 C 14,5 km/h (3 Bft)
07.08.2020 16:09 33,2 C 36 % 1019,2 hPa 0,0 l/m 3,5 km/h (1 Bft) NO 43 3 min 642 W/m 16,1 C 33,2 C 8,0 km/h (2 Bft)
07.08.2020 16:12 33,2 C 37 % 1019,1 hPa 0,0 l/m 3,4 km/h (1 Bft) NO 38 3 min 640 W/m 16,5 C 33,2 C 8,0 km/h (2 Bft)
07.08.2020 16:15 33,3 C 36 % 1019,1 hPa 0,0 l/m 5,0 km/h (1 Bft) NO 40 3 min 631 W/m 16,2 C 33,3 C 9,7 km/h (2 Bft)
07.08.2020 16:18 33,3 C 36 % 1019,1 hPa 0,0 l/m 3,8 km/h (1 Bft) NO 40 3 min 621 W/m 16,2 C 33,3 C 8,0 km/h (2 Bft)
07.08.2020 16:21 33,3 C 36 % 1019,1 hPa 0,0 l/m 4,0 km/h (1 Bft) NO 38 3 min 613 W/m 16,2 C 33,3 C 8,0 km/h (2 Bft)
07.08.2020 16:24 33,2 C 37 % 1019,1 hPa 0,0 l/m 3,0 km/h (1 Bft) NO 38 3 min 610 W/m 16,5 C 33,2 C 8,0 km/h (2 Bft)
07.08.2020 16:27 33,2 C 36 % 1019,1 hPa 0,0 l/m 3,2 km/h (1 Bft) NO 52 3 min 603 W/m 16,1 C 33,2 C 8,0 km/h (2 Bft)
07.08.2020 16:30 33,2 C 36 % 1019,1 hPa 0,0 l/m 4,7 km/h (1 Bft) NO 52 3 min 596 W/m 16,1 C 33,2 C 8,0 km/h (2 Bft)
07.08.2020 16:33 33,2 C 37 % 1019,0 hPa 0,0 l/m 4,3 km/h (1 Bft) NO 42 3 min 587 W/m 16,5 C 33,2 C 8,0 km/h (2 Bft)
07.08.2020 16:36 33,2 C 36 % 1019,0 hPa 0,0 l/m 4,5 km/h (1 Bft) NO 38 3 min 585 W/m 16,1 C 33,2 C 8,0 km/h (2 Bft)
07.08.2020 16:39 33,2 C 37 % 1019,0 hPa 0,0 l/m 3,5 km/h (1 Bft) NO 38 3 min 575 W/m 16,5 C 33,2 C 6,4 km/h (2 Bft)
07.08.2020 16:42 33,2 C 38 % 1019,0 hPa 0,0 l/m 3,4 km/h (1 Bft) NO 38 3 min 571 W/m 16,9 C 33,2 C 6,4 km/h (2 Bft)
07.08.2020 16:45 33,3 C 39 % 1019,0 hPa 0,0 l/m 3,2 km/h (1 Bft) NO 40 3 min 566 W/m 17,4 C 33,3 C 8,0 km/h (2 Bft)
07.08.2020 16:48 33,3 C 38 % 1019,0 hPa 0,0 l/m 3,4 km/h (1 Bft) N-NO 30 3 min 559 W/m 17,0 C 33,3 C 8,0 km/h (2 Bft)
07.08.2020 16:51 33,2 C 38 % 1018,9 hPa 0,0 l/m 2,7 km/h (1 Bft) N-NO 30 3 min 548 W/m 16,9 C 33,2 C 6,4 km/h (2 Bft)
07.08.2020 16:54 33,2 C 39 % 1019,0 hPa 0,0 l/m 3,1 km/h (1 Bft) N-NO 30 3 min 541 W/m 17,3 C 33,2 C 6,4 km/h (2 Bft)
07.08.2020 16:57 33,2 C 40 % 1019,0 hPa 0,0 l/m 2,7 km/h (1 Bft) N-NO 30 3 min 536 W/m 17,7 C 33,2 C 4,8 km/h (1 Bft)
07.08.2020 17:00 33,1 C 39 % 1019,0 hPa 0,0 l/m 2,6 km/h (1 Bft) N-NO 30 3 min 529 W/m 17,3 C 33,1 C 6,4 km/h (2 Bft)
07.08.2020 17:03 33,1 C 40 % 1018,9 hPa 0,0 l/m 2,8 km/h (1 Bft) NO 44 3 min 520 W/m 17,7 C 33,1 C 4,8 km/h (1 Bft)
07.08.2020 17:06 33,1 C 39 % 1018,9 hPa 0,0 l/m 3,0 km/h (1 Bft) NO 44 3 min 517 W/m 17,3 C 33,1 C 9,7 km/h (2 Bft)
07.08.2020 17:09 33,0 C 41 % 1018,9 hPa 0,0 l/m 1,9 km/h (1 Bft) NO 43 3 min 512 W/m 18,0 C 33,0 C 4,8 km/h (1 Bft)
07.08.2020 17:12 33,0 C 38 % 1018,9 hPa 0,0 l/m 4,2 km/h (1 Bft) NO 43 3 min 504 W/m 16,8 C 33,0 C 9,7 km/h (2 Bft)
07.08.2020 17:15 32,9 C 39 % 1018,9 hPa 0,0 l/m 4,2 km/h (1 Bft) NO 38 3 min 497 W/m 17,1 C 32,9 C 8,0 km/h (2 Bft)
07.08.2020 17:18 32,9 C 39 % 1019,0 hPa 0,0 l/m 4,8 km/h (1 Bft) O-NO 65 3 min 489 W/m 17,1 C 32,9 C 16,1 km/h (3 Bft)
07.08.2020 17:21 32,9 C 40 % 1019,0 hPa 0,0 l/m 3,2 km/h (1 Bft) O-NO 65 3 min 482 W/m 17,5 C 32,9 C 8,0 km/h (2 Bft)
07.08.2020 17:24 32,8 C 39 % 1019,0 hPa 0,0 l/m 3,4 km/h (1 Bft) NO 39 3 min 473 W/m 17,0 C 32,8 C 8,0 km/h (2 Bft)
07.08.2020 17:27 32,8 C 41 % 1019,0 hPa 0,0 l/m 2,2 km/h (1 Bft) NO 40 3 min 468 W/m 17,8 C 32,8 C 3,2 km/h (1 Bft)
07.08.2020 17:30 32,8 C 42 % 1018,9 hPa 0,0 l/m 2,3 km/h (1 Bft) NO 40 3 min 457 W/m 18,2 C 32,8 C 4,8 km/h (1 Bft)
07.08.2020 17:33 32,7 C 42 % 1018,9 hPa 0,0 l/m 1,7 km/h (1 Bft) NO 40 3 min 454 W/m 18,1 C 32,7 C 3,2 km/h (1 Bft)
07.08.2020 17:36 32,7 C 41 % 1018,9 hPa 0,0 l/m 4,0 km/h (1 Bft) N-NW 340 3 min 445 W/m 17,7 C 32,7 C 8,0 km/h (2 Bft)
07.08.2020 17:39 32,6 C 42 % 1019,0 hPa 0,0 l/m 2,5 km/h (1 Bft) N-NW 340 3 min 438 W/m 18,0 C 32,6 C 4,8 km/h (1 Bft)
07.08.2020 17:42 32,5 C 42 % 1018,9 hPa 0,0 l/m 1,8 km/h (1 Bft) N-NW 340 3 min 427 W/m 17,9 C 32,5 C 4,8 km/h (1 Bft)
07.08.2020 17:45 32,4 C 41 % 1018,9 hPa 0,0 l/m 2,0 km/h (1 Bft) N-NW 340 3 min 420 W/m 17,4 C 32,4 C 4,8 km/h (1 Bft)
07.08.2020 17:48 32,4 C 41 % 1018,8 hPa 0,0 l/m 2,0 km/h (1 Bft) N-NW 340 3 min 411 W/m 17,4 C 32,4 C 4,8 km/h (1 Bft)
07.08.2020 17:51 32,3 C 42 % 1018,8 hPa 0,0 l/m 3,2 km/h (1 Bft) N-NW 344 3 min 404 W/m 17,7 C 32,3 C 8,0 km/h (2 Bft)
07.08.2020 17:54 32,3 C 42 % 1018,8 hPa 0,0 l/m 2,8 km/h (1 Bft) N-NW 344 3 min 397 W/m 17,7 C 32,3 C 8,0 km/h (2 Bft)
07.08.2020 17:57 32,2 C 42 % 1018,8 hPa 0,0 l/m 2,3 km/h (1 Bft) N-NW 344 3 min 390 W/m 17,6 C 32,2 C 6,4 km/h (2 Bft)
07.08.2020 18:00 32,2 C 43 % 1018,8 hPa 0,0 l/m 1,8 km/h (1 Bft) N-NW 344 3 min 378 W/m 18,0 C 32,2 C 3,2 km/h (1 Bft)
07.08.2020 18:03 32,1 C 41 % 1018,7 hPa 0,0 l/m 2,6 km/h (1 Bft) N-NW 344 3 min 373 W/m 17,2 C 32,1 C 6,4 km/h (2 Bft)
07.08.2020 18:06 32,1 C 41 % 1018,7 hPa 0,0 l/m 3,3 km/h (1 Bft) N 349 3 min 366 W/m 17,2 C 32,1 C 8,0 km/h (2 Bft)
07.08.2020 18:09 32,0 C 43 % 1018,7 hPa 0,0 l/m 1,9 km/h (1 Bft) N 349 3 min 359 W/m 17,8 C 32,0 C 4,8 km/h (1 Bft)
07.08.2020 18:12 31,9 C 43 % 1018,6 hPa 0,0 l/m 2,1 km/h (1 Bft) N 349 3 min 350 W/m 17,7 C 31,9 C 4,8 km/h (1 Bft)
07.08.2020 18:15 31,8 C 42 % 1018,6 hPa 0,0 l/m 1,8 km/h (1 Bft) N 349 3 min 343 W/m 17,3 C 31,8 C 4,8 km/h (1 Bft)
07.08.2020 18:18 31,7 C 43 % 1018,6 hPa 0,0 l/m 3,3 km/h (1 Bft) N 349 3 min 336 W/m 17,6 C 31,7 C 6,4 km/h (2 Bft)
07.08.2020 18:21 31,7 C 42 % 1018,6 hPa 0,0 l/m 2,6 km/h (1 Bft) N 350 3 min 327 W/m 17,2 C 31,7 C 6,4 km/h (2 Bft)
07.08.2020 18:24 31,6 C 42 % 1018,6 hPa 0,0 l/m 1,8 km/h (1 Bft) N 350 3 min 316 W/m 17,1 C 31,6 C 3,2 km/h (1 Bft)
07.08.2020 18:27 31,6 C 42 % 1018,6 hPa 0,0 l/m 1,8 km/h (1 Bft) N 350 3 min 311 W/m 17,1 C 31,6 C 4,8 km/h (1 Bft)
07.08.2020 18:30 31,6 C 43 % 1018,6 hPa 0,0 l/m 1,9 km/h (1 Bft) N 350 3 min 299 W/m 17,5 C 31,6 C 3,2 km/h (1 Bft)
07.08.2020 18:33 31,5 C 43 % 1018,6 hPa 0,0 l/m 2,4 km/h (1 Bft) N 350 3 min 295 W/m 17,4 C 31,5 C 6,4 km/h (2 Bft)
07.08.2020 18:36 31,5 C 42 % 1018,5 hPa 0,0 l/m 2,1 km/h (1 Bft) N 350 3 min 281 W/m 17,0 C 31,5 C 4,8 km/h (1 Bft)
07.08.2020 18:39 31,4 C 44 % 1018,5 hPa 0,0 l/m 1,4 km/h (1 Bft) N 350 0 min 56 W/m 17,6 C 31,4 C 3,2 km/h (1 Bft)
07.08.2020 18:42 31,4 C 43 % 1018,5 hPa 0,0 l/m 2,3 km/h (1 Bft) N 350 0 min 49 W/m 17,3 C 31,4 C 4,8 km/h (1 Bft)
07.08.2020 18:45 31,4 C 43 % 1018,5 hPa 0,0 l/m 1,7 km/h (1 Bft) N 350 0 min 47 W/m 17,3 C 31,4 C 4,8 km/h (1 Bft)
07.08.2020 18:48 31,3 C 43 % 1018,5 hPa 0,0 l/m 2,4 km/h (1 Bft) N 350 0 min 47 W/m 17,2 C 31,3 C 6,4 km/h (2 Bft)
07.08.2020 18:51 31,2 C 44 % 1018,6 hPa 0,0 l/m 1,8 km/h (1 Bft) N 350 0 min 46 W/m 17,5 C 31,2 C 4,8 km/h (1 Bft)
07.08.2020 18:54 31,1 C 45 % 1018,6 hPa 0,0 l/m 1,7 km/h (1 Bft) N 350 0 min 46 W/m 17,7 C 31,1 C 3,2 km/h (1 Bft)
07.08.2020 18:57 31,1 C 46 % 1018,5 hPa 0,0 l/m 1,3 km/h (1 Bft) N 350 0 min 44 W/m 18,1 C 31,1 C 3,2 km/h (1 Bft)
07.08.2020 19:00 30,9 C 46 % 1018,5 hPa 0,0 l/m 1,8 km/h (1 Bft) N 350 0 min 44 W/m 17,9 C 30,9 C 3,2 km/h (1 Bft)
07.08.2020 19:03 30,8 C 46 % 1018,6 hPa 0,0 l/m 1,3 km/h (1 Bft) N 350 0 min 53 W/m 17,8 C 30,8 C 3,2 km/h (1 Bft)
07.08.2020 19:06 30,7 C 46 % 1018,6 hPa 0,0 l/m 1,8 km/h (1 Bft) N 350 0 min 42 W/m 17,7 C 30,7 C 4,8 km/h (1 Bft)
07.08.2020 19:09 30,6 C 47 % 1018,6 hPa 0,0 l/m 1,4 km/h (1 Bft) N 350 0 min 42 W/m 18,0 C 30,6 C 3,2 km/h (1 Bft)
07.08.2020 19:12 30,4 C 48 % 1018,5 hPa 0,0 l/m 1,0 km/h (0 Bft) N 350 0 min 40 W/m 18,1 C 30,4 C 1,6 km/h (1 Bft)
07.08.2020 19:15 30,2 C 48 % 1018,6 hPa 0,0 l/m 1,1 km/h (1 Bft) N 350 0 min 40 W/m 17,9 C 30,2 C 3,2 km/h (1 Bft)
07.08.2020 19:18 30,1 C 49 % 1018,6 hPa 0,0 l/m 1,2 km/h (1 Bft) N 350 0 min 40 W/m 18,2 C 30,1 C 3,2 km/h (1 Bft)
07.08.2020 19:21 29,9 C 50 % 1018,6 hPa 0,0 l/m 1,2 km/h (1 Bft) N 350 0 min 39 W/m 18,3 C 29,9 C 3,2 km/h (1 Bft)
07.08.2020 19:24 29,7 C 50 % 1018,5 hPa 0,0 l/m 1,7 km/h (1 Bft) N 350 0 min 39 W/m 18,1 C 29,7 C 3,2 km/h (1 Bft)
07.08.2020 19:27 29,6 C 51 % 1018,5 hPa 0,0 l/m 1,2 km/h (1 Bft) N 350 0 min 37 W/m 18,4 C 29,6 C 1,6 km/h (1 Bft)
07.08.2020 19:30 29,3 C 52 % 1018,5 hPa 0,0 l/m 1,0 km/h (0 Bft) N 350 0 min 37 W/m 18,4 C 29,3 C 3,2 km/h (1 Bft)
07.08.2020 19:33 29,2 C 52 % 1018,5 hPa 0,0 l/m 1,4 km/h (1 Bft) N 350 0 min 35 W/m 18,3 C 29,2 C 3,2 km/h (1 Bft)
07.08.2020 19:36 29,1 C 53 % 1018,5 hPa 0,0 l/m 1,7 km/h (1 Bft) N 350 0 min 35 W/m 18,5 C 29,1 C 3,2 km/h (1 Bft)
07.08.2020 19:39 28,8 C 53 % 1018,5 hPa 0,0 l/m 2,0 km/h (1 Bft) N 350 0 min 35 W/m 18,2 C 28,8 C 4,8 km/h (1 Bft)
07.08.2020 19:42 28,7 C 53 % 1018,5 hPa 0,0 l/m 2,6 km/h (1 Bft) N 350 0 min 33 W/m 18,2 C 28,7 C 4,8 km/h (1 Bft)
07.08.2020 19:45 28,6 C 54 % 1018,5 hPa 0,0 l/m 2,0 km/h (1 Bft) N 350 0 min 33 W/m 18,4 C 28,6 C 3,2 km/h (1 Bft)
07.08.2020 19:48 28,4 C 56 % 1018,6 hPa 0,0 l/m 2,9 km/h (1 Bft) N 350 0 min 32 W/m 18,8 C 28,4 C 6,4 km/h (2 Bft)
07.08.2020 19:51 28,3 C 59 % 1018,6 hPa 0,0 l/m 3,5 km/h (1 Bft) N 350 0 min 30 W/m 19,5 C 28,3 C 6,4 km/h (2 Bft)
07.08.2020 19:54 28,1 C 60 % 1018,6 hPa 0,0 l/m 3,1 km/h (1 Bft) N 350 0 min 30 W/m 19,6 C 28,1 C 6,4 km/h (2 Bft)
07.08.2020 19:57 28,0 C 61 % 1018,6 hPa 0,0 l/m 2,2 km/h (1 Bft) N 350 0 min 28 W/m 19,8 C 28,0 C 4,8 km/h (1 Bft)
07.08.2020 20:00 27,8 C 62 % 1018,5 hPa 0,0 l/m 1,8 km/h (1 Bft) N 350 0 min 28 W/m 19,8 C 27,8 C 4,8 km/h (1 Bft)
07.08.2020 20:03 27,7 C 62 % 1018,5 hPa 0,0 l/m 1,3 km/h (1 Bft) N 350 0 min 26 W/m 19,7 C 27,7 C 3,2 km/h (1 Bft)
07.08.2020 20:06 27,6 C 62 % 1018,6 hPa 0,0 l/m 1,9 km/h (1 Bft) N 350 0 min 26 W/m 19,6 C 27,6 C 4,8 km/h (1 Bft)
07.08.2020 20:09 27,4 C 63 % 1018,6 hPa 0,0 l/m 1,6 km/h (1 Bft) N 350 0 min 25 W/m 19,7 C 27,4 C 3,2 km/h (1 Bft)
07.08.2020 20:12 27,3 C 63 % 1018,6 hPa 0,0 l/m 1,7 km/h (1 Bft) N 350 0 min 25 W/m 19,6 C 27,3 C 3,2 km/h (1 Bft)
07.08.2020 20:15 27,2 C 64 % 1018,6 hPa 0,0 l/m 1,6 km/h (1 Bft) N 350 0 min 23 W/m 19,8 C 27,2 C 3,2 km/h (1 Bft)
07.08.2020 20:18 27,1 C 64 % 1018,6 hPa 0,0 l/m 1,8 km/h (1 Bft) N 350 0 min 21 W/m 19,7 C 27,1 C 3,2 km/h (1 Bft)
07.08.2020 20:21 26,9 C 65 % 1018,6 hPa 0,0 l/m 1,8 km/h (1 Bft) N 350 0 min 21 W/m 19,7 C 26,9 C 4,8 km/h (1 Bft)
07.08.2020 20:24 26,7 C 66 % 1018,6 hPa 0,0 l/m 1,1 km/h (1 Bft) N 350 0 min 19 W/m 19,8 C 26,7 C 3,2 km/h (1 Bft)
07.08.2020 20:27 26,6 C 67 % 1018,6 hPa 0,0 l/m 1,9 km/h (1 Bft) N 350 0 min 19 W/m 20,0 C 26,6 C 4,8 km/h (1 Bft)
07.08.2020 20:30 26,5 C 68 % 1018,6 hPa 0,0 l/m 1,4 km/h (1 Bft) N 350 0 min 18 W/m 20,1 C 26,5 C 3,2 km/h (1 Bft)
07.08.2020 20:33 26,3 C 68 % 1018,6 hPa 0,0 l/m 0,7 km/h (0 Bft) N 350 0 min 16 W/m 19,9 C 26,3 C 3,2 km/h (1 Bft)
07.08.2020 20:36 26,2 C 68 % 1018,6 hPa 0,0 l/m 0,8 km/h (0 Bft) N 350 0 min 16 W/m 19,8 C 26,2 C 4,8 km/h (1 Bft)
07.08.2020 20:39 26,1 C 68 % 1018,6 hPa 0,0 l/m 0,0 km/h (0 Bft) N 350 0 min 14 W/m 19,7 C 26,1 C 0,0 km/h (0 Bft)
07.08.2020 20:42 25,9 C 69 % 1018,6 hPa 0,0 l/m 0,0 km/h (0 Bft) N 350 0 min 12 W/m 19,8 C 25,9 C 0,0 km/h (0 Bft)
07.08.2020 20:45 25,7 C 70 % 1018,6 hPa 0,0 l/m 0,0 km/h (0 Bft) N 350 0 min 12 W/m 19,8 C 25,7 C 0,0 km/h (0 Bft)
07.08.2020 20:48 25,6 C 70 % 1018,6 hPa 0,0 l/m 0,0 km/h (0 Bft) N 350 0 min 11 W/m 19,7 C 25,6 C 0,0 km/h (0 Bft)
07.08.2020 20:51 25,4 C 71 % 1018,6 hPa 0,0 l/m 0,0 km/h (0 Bft) N 350 0 min 9 W/m 19,7 C 25,4 C 0,0 km/h (0 Bft)
07.08.2020 20:54 25,3 C 71 % 1018,7 hPa 0,0 l/m 0,0 km/h (0 Bft) N 350 0 min 9 W/m 19,7 C 25,3 C 0,0 km/h (0 Bft)
07.08.2020 20:57 25,2 C 72 % 1018,6 hPa 0,0 l/m 0,0 km/h (0 Bft) N 350 0 min 7 W/m 19,8 C 25,2 C 0,0 km/h (0 Bft)
07.08.2020 21:00 25,1 C 72 % 1018,6 hPa 0,0 l/m 0,0 km/h (0 Bft) N 350 0 min 5 W/m 19,7 C 25,1 C 0,0 km/h (0 Bft)
07.08.2020 21:03 24,9 C 72 % 1018,6 hPa 0,0 l/m 0,0 km/h (0 Bft) N 350 0 min 5 W/m 19,5 C 24,9 C 0,0 km/h (0 Bft)
07.08.2020 21:06 24,7 C 73 % 1018,6 hPa 0,0 l/m 0,0 km/h (0 Bft) N 350 0 min 0 W/m 19,5 C 24,7 C 0,0 km/h (0 Bft)
07.08.2020 21:09 24,6 C 74 % 1018,7 hPa 0,0 l/m 0,0 km/h (0 Bft) N 350 0 min 0 W/m 19,6 C 24,6 C 0,0 km/h (0 Bft)
07.08.2020 21:12 24,5 C 74 % 1018,7 hPa 0,0 l/m 0,2 km/h (0 Bft) N 350 0 min 0 W/m 19,6 C 24,5 C 1,6 km/h (1 Bft)
07.08.2020 21:15 24,4 C 74 % 1018,7 hPa 0,0 l/m 0,0 km/h (0 Bft) N 350 0 min 0 W/m 19,5 C 24,4 C 0,0 km/h (0 Bft)
07.08.2020 21:18 24,3 C 75 % 1018,7 hPa 0,0 l/m 0,0 km/h (0 Bft) N 350 0 min 0 W/m 19,6 C 24,3 C 0,0 km/h (0 Bft)
07.08.2020 21:21 24,3 C 75 % 1018,7 hPa 0,0 l/m 0,0 km/h (0 Bft) N 350 0 min 0 W/m 19,6 C 24,3 C 0,0 km/h (0 Bft)
07.08.2020 21:24 24,2 C 76 % 1018,8 hPa 0,0 l/m 0,0 km/h (0 Bft) N 350 0 min 0 W/m 19,7 C 24,2 C 1,6 km/h (1 Bft)
07.08.2020 21:27 24,1 C 76 % 1018,7 hPa 0,0 l/m 0,0 km/h (0 Bft) N 350 0 min 0 W/m 19,6 C 24,1 C 1,6 km/h (1 Bft)
07.08.2020 21:30 24,0 C 76 % 1018,8 hPa 0,0 l/m 0,0 km/h (0 Bft) N 350 0 min 0 W/m 19,5 C 24,0 C 0,0 km/h (0 Bft)
07.08.2020 21:33 23,8 C 76 % 1018,8 hPa 0,0 l/m 0,0 km/h (0 Bft) N 350 0 min 0 W/m 19,3 C 23,8 C 0,0 km/h (0 Bft)
07.08.2020 21:36 23,8 C 76 % 1018,8 hPa 0,0 l/m 0,0 km/h (0 Bft) N 350 0 min 0 W/m 19,3 C 23,8 C 0,0 km/h (0 Bft)
07.08.2020 21:39 23,6 C 77 % 1018,8 hPa 0,0 l/m 0,0 km/h (0 Bft) N 350 0 min 0 W/m 19,3 C 23,6 C 0,0 km/h (0 Bft)
07.08.2020 21:42 23,5 C 77 % 1018,8 hPa 0,0 l/m 0,0 km/h (0 Bft) N 350 0 min 0 W/m 19,2 C 23,5 C 0,0 km/h (0 Bft)
07.08.2020 21:45 23,4 C 77 % 1018,9 hPa 0,0 l/m 0,1 km/h (0 Bft) N 350 0 min 0 W/m 19,1 C 23,4 C 1,6 km/h (1 Bft)
07.08.2020 21:48 23,3 C 77 % 1018,9 hPa 0,0 l/m 1,8 km/h (1 Bft) N 350 0 min 0 W/m 19,0 C 23,3 C 4,8 km/h (1 Bft)
07.08.2020 21:51 23,3 C 77 % 1018,9 hPa 0,0 l/m 1,3 km/h (1 Bft) N 350 0 min 0 W/m 19,0 C 23,3 C 4,8 km/h (1 Bft)
07.08.2020 21:54 23,2 C 77 % 1018,9 hPa 0,0 l/m 0,6 km/h (0 Bft) N 350 0 min 0 W/m 18,9 C 23,2 C 3,2 km/h (1 Bft)
07.08.2020 21:57 23,1 C 77 % 1018,9 hPa 0,0 l/m 2,4 km/h (1 Bft) N 350 0 min 0 W/m 18,8 C 23,1 C 4,8 km/h (1 Bft)
07.08.2020 22:00 23,0 C 77 % 1018,9 hPa 0,0 l/m 1,1 km/h (1 Bft) O-NO 61 0 min 0 W/m 18,7 C 23,0 C 6,4 km/h (2 Bft)
07.08.2020 22:03 22,9 C 77 % 1018,9 hPa 0,0 l/m 1,7 km/h (1 Bft) NO 55 0 min 0 W/m 18,6 C 22,9 C 4,8 km/h (1 Bft)
07.08.2020 22:06 22,8 C 76 % 1018,9 hPa 0,0 l/m 4,0 km/h (1 Bft) O-SO 102 0 min 0 W/m 18,3 C 22,8 C 12,9 km/h (3 Bft)
07.08.2020 22:09 22,8 C 76 % 1018,9 hPa 0,0 l/m 2,4 km/h (1 Bft) NO 42 0 min 0 W/m 18,3 C 22,8 C 9,7 km/h (2 Bft)
07.08.2020 22:12 22,7 C 76 % 1018,9 hPa 0,0 l/m 1,0 km/h (0 Bft) NO 42 0 min 0 W/m 18,2 C 22,7 C 6,4 km/h (2 Bft)
07.08.2020 22:15 22,7 C 76 % 1018,9 hPa 0,0 l/m 2,4 km/h (1 Bft) SO 125 0 min 0 W/m 18,2 C 22,7 C 8,0 km/h (2 Bft)
07.08.2020 22:18 22,7 C 76 % 1018,8 hPa 0,0 l/m 3,0 km/h (1 Bft) SO 125 0 min 0 W/m 18,2 C 22,7 C 4,8 km/h (1 Bft)
07.08.2020 22:21 22,7 C 76 % 1018,8 hPa 0,0 l/m 6,1 km/h (2 Bft) O-SO 113 0 min 0 W/m 18,2 C 22,7 C 14,5 km/h (3 Bft)
07.08.2020 22:24 22,7 C 76 % 1018,9 hPa 0,0 l/m 4,3 km/h (1 Bft) N 11 0 min 0 W/m 18,2 C 22,7 C 11,3 km/h (2 Bft)
07.08.2020 22:27 22,7 C 75 % 1018,9 hPa 0,0 l/m 2,2 km/h (1 Bft) NO 43 0 min 0 W/m 18,0 C 22,7 C 4,8 km/h (1 Bft)
07.08.2020 22:30 22,7 C 75 % 1018,9 hPa 0,0 l/m 3,6 km/h (1 Bft) O 88 0 min 0 W/m 18,0 C 22,7 C 8,0 km/h (2 Bft)
07.08.2020 22:33 22,7 C 75 % 1018,9 hPa 0,0 l/m 3,9 km/h (1 Bft) O-SO 105 0 min 0 W/m 18,0 C 22,7 C 6,4 km/h (2 Bft)
07.08.2020 22:36 22,7 C 75 % 1019,0 hPa 0,0 l/m 2,4 km/h (1 Bft) O-SO 105 0 min 0 W/m 18,0 C 22,7 C 4,8 km/h (1 Bft)
07.08.2020 22:39 22,7 C 75 % 1018,9 hPa 0,0 l/m 2,1 km/h (1 Bft) O-SO 106 0 min 0 W/m 18,0 C 22,7 C 6,4 km/h (2 Bft)
07.08.2020 22:42 22,7 C 74 % 1018,9 hPa 0,0 l/m 2,3 km/h (1 Bft) O-SO 106 0 min 0 W/m 17,8 C 22,7 C 6,4 km/h (2 Bft)
07.08.2020 22:45 22,7 C 74 % 1018,9 hPa 0,0 l/m 3,7 km/h (1 Bft) O 96 0 min 0 W/m 17,8 C 22,7 C 11,3 km/h (2 Bft)
07.08.2020 22:48 22,7 C 73 % 1018,9 hPa 0,0 l/m 4,6 km/h (1 Bft) O 98 0 min 0 W/m 17,6 C 22,7 C 11,3 km/h (2 Bft)
07.08.2020 22:51 22,7 C 73 % 1019,0 hPa 0,0 l/m 3,3 km/h (1 Bft) O 91 0 min 0 W/m 17,6 C 22,7 C 11,3 km/h (2 Bft)
07.08.2020 22:54 22,7 C 73 % 1018,9 hPa 0,0 l/m 3,0 km/h (1 Bft) O 90 0 min 0 W/m 17,6 C 22,7 C 6,4 km/h (2 Bft)
07.08.2020 22:57 22,7 C 72 % 1019,0 hPa 0,0 l/m 4,3 km/h (1 Bft) O-NO 61 0 min 0 W/m 17,4 C 22,7 C 12,9 km/h (3 Bft)
07.08.2020 23:00 22,7 C 72 % 1019,0 hPa 0,0 l/m 5,1 km/h (1 Bft) O-NO 72 0 min 0 W/m 17,4 C 22,7 C 16,1 km/h (3 Bft)
07.08.2020 23:03 22,7 C 72 % 1019,0 hPa 0,0 l/m 3,1 km/h (1 Bft) O-NO 73 0 min 0 W/m 17,4 C 22,7 C 8,0 km/h (2 Bft)
07.08.2020 23:06 22,7 C 71 % 1019,1 hPa 0,0 l/m 4,3 km/h (1 Bft) O 89 0 min 0 W/m 17,2 C 22,7 C 12,9 km/h (3 Bft)
07.08.2020 23:09 22,7 C 71 % 1019,1 hPa 0,0 l/m 5,2 km/h (1 Bft) S-SO 157 0 min 0 W/m 17,2 C 22,7 C 12,9 km/h (3 Bft)
07.08.2020 23:12 22,7 C 70 % 1019,1 hPa 0,0 l/m 3,6 km/h (1 Bft) O 94 0 min 0 W/m 16,9 C 22,7 C 9,7 km/h (2 Bft)
07.08.2020 23:15 22,7 C 70 % 1019,1 hPa 0,0 l/m 3,2 km/h (1 Bft) O-SO 103 0 min 0 W/m 16,9 C 22,7 C 9,7 km/h (2 Bft)
07.08.2020 23:18 22,7 C 70 % 1019,1 hPa 0,0 l/m 2,9 km/h (1 Bft) O-SO 114 0 min 0 W/m 16,9 C 22,7 C 9,7 km/h (2 Bft)
07.08.2020 23:21 22,8 C 70 % 1019,1 hPa 0,0 l/m 4,7 km/h (1 Bft) NO 49 0 min 0 W/m 17,0 C 22,8 C 14,5 km/h (3 Bft)
07.08.2020 23:24 22,8 C 70 % 1019,1 hPa 0,0 l/m 4,4 km/h (1 Bft) O 94 0 min 0 W/m 17,0 C 22,8 C 14,5 km/h (3 Bft)
07.08.2020 23:27 22,8 C 70 % 1019,1 hPa 0,0 l/m 5,0 km/h (1 Bft) O-SO 115 0 min 0 W/m 17,0 C 22,8 C 9,7 km/h (2 Bft)
07.08.2020 23:30 22,8 C 70 % 1019,1 hPa 0,0 l/m 2,9 km/h (1 Bft) O-SO 115 0 min 0 W/m 17,0 C 22,8 C 4,8 km/h (1 Bft)
07.08.2020 23:33 22,8 C 69 % 1019,1 hPa 0,0 l/m 3,6 km/h (1 Bft) O 101 0 min 0 W/m 16,8 C 22,8 C 14,5 km/h (3 Bft)
07.08.2020 23:36 22,8 C 70 % 1019,1 hPa 0,0 l/m 3,9 km/h (1 Bft) NO 50 0 min 0 W/m 17,0 C 22,8 C 8,0 km/h (2 Bft)
07.08.2020 23:39 22,8 C 69 % 1019,1 hPa 0,0 l/m 3,2 km/h (1 Bft) NO 51 0 min 0 W/m 16,8 C 22,8 C 4,8 km/h (1 Bft)
07.08.2020 23:42 22,7 C 69 % 1019,1 hPa 0,0 l/m 4,1 km/h (1 Bft) O-SO 107 0 min 0 W/m 16,7 C 22,7 C 11,3 km/h (2 Bft)
07.08.2020 23:45 22,7 C 69 % 1019,1 hPa 0,0 l/m 2,5 km/h (1 Bft) O-SO 106 0 min 0 W/m 16,7 C 22,7 C 9,7 km/h (2 Bft)
07.08.2020 23:48 22,7 C 69 % 1019,1 hPa 0,0 l/m 2,4 km/h (1 Bft) O-SO 107 0 min 0 W/m 16,7 C 22,7 C 6,4 km/h (2 Bft)
07.08.2020 23:51 22,7 C 69 % 1019,1 hPa 0,0 l/m 2,8 km/h (1 Bft) O-SO 107 0 min 0 W/m 16,7 C 22,7 C 6,4 km/h (2 Bft)
07.08.2020 23:54 22,7 C 70 % 1019,1 hPa 0,0 l/m 2,6 km/h (1 Bft) O-SO 110 0 min 0 W/m 16,9 C 22,7 C 9,7 km/h (2 Bft)
07.08.2020 23:57 22,7 C 70 % 1019,1 hPa 0,0 l/m 3,2 km/h (1 Bft) O-SO 110 0 min 0 W/m 16,9 C 22,7 C 6,4 km/h (2 Bft)
_ Min-Zeit 06:33 15:30 18:36 - 00:00 - - - - 06:39 06:33 00:00
Minimum _ 16,1 C 34 % 1018,5 hPa - 0,0 km/h (0 Bft) - - - - 13,0 C 16,1 C 0,0 km/h (0 Bft)
_ Max-Zeit 16:12 02:33 09:06 00:00 09:57 - - 09:09 13:42 12:21 16:15 12:36
Maximum _ 33,3 C 88 % 1020,5 hPa 0,0 l/m 7,1 km/h
SO (2 Bft)
- - 3 min 814 W/m 20,6 C 33,3 C 16,1 km/h
NO (3 Bft)
Durchschnitt _ 24,2 C 66 % 1019,5 hPa #0,0 l/m 2,4 km/h (1 Bft) SO - #9:06 h 383 W/m 16,7 C 24,2 C 5,9 km/h (2 Bft)
2020 Cux-Wetter.de -Die Nutzung der Wetterdaten nur mit ausdrcklicher Genehmigung